AAL71 EDDF-KDFW

Flight info

Callsign AAL71
Flight time 10h 13m
Altitude 38000
Route OBOKA3D/07C OBOKA Z28 DIBIR BUDIP ALFEN MIMVA GETNO NINEB BELZU KUGUR SUNOT NATA JANJO MT J545 YVO KP87Q KG69M KK60K FSM RRNET SEEVR4
Aircraft B788/H-VGDW/C

Departure

Time 2026-04-14 10:47
Airport Frankfurt Main Airport (EDDF)

Arrival

Time 2026-04-14 21:00
Airport Dallas Fort Worth International Airport (KDFW)
Time Latitude Longitude Altitude Speed Heading
2026-04-14 10:07 50.04428 8.56272 358 ft 0 kts 165°
2026-04-14 10:32 50.04435 8.56268 358 ft 2 kts 165°
2026-04-14 10:32 50.04450 8.56262 359 ft 2 kts 165°
2026-04-14 10:32 50.04465 8.56257 359 ft 2 kts 184°
2026-04-14 10:33 50.04479 8.56263 359 ft 2 kts 210°
2026-04-14 10:33 50.04490 8.56278 359 ft 2 kts 234°
2026-04-14 10:33 50.04495 8.56291 359 ft 0 kts 250°
2026-04-14 10:33 50.04496 8.56295 359 ft 0 kts 251°
2026-04-14 10:36 50.04494 8.56290 359 ft 1 kts 250°
2026-04-14 10:37 50.04491 8.56275 359 ft 0 kts 250°
2026-04-14 10:37 50.04490 8.56272 359 ft 1 kts 250°
2026-04-14 10:37 50.04484 8.56246 359 ft 2 kts 250°
2026-04-14 10:38 50.04483 8.56242 359 ft 0 kts 250°
2026-04-14 10:40 50.04479 8.56225 359 ft 3 kts 250°
2026-04-14 10:40 50.04468 8.56178 359 ft 5 kts 251°
2026-04-14 10:41 50.04448 8.56097 358 ft 10 kts 244°
2026-04-14 10:41 50.04417 8.56040 358 ft 6 kts 211°
2026-04-14 10:41 50.04377 8.56041 357 ft 7 kts 167°
2026-04-14 10:41 50.04319 8.56066 356 ft 11 kts 173°
2026-04-14 10:42 50.04265 8.56030 354 ft 9 kts 237°
2026-04-14 10:42 50.04222 8.55933 352 ft 10 kts 205°
2026-04-14 10:42 50.04147 8.55944 349 ft 11 kts 165°
2026-04-14 10:42 50.04075 8.55962 348 ft 8 kts 193°
2026-04-14 10:43 50.04043 8.55917 346 ft 11 kts 244°
2026-04-14 10:43 50.04000 8.55744 345 ft 17 kts 250°
2026-04-14 10:43 50.03962 8.55583 345 ft 15 kts 250°
2026-04-14 10:43 50.03927 8.55439 345 ft 12 kts 250°
2026-04-14 10:44 50.03893 8.55298 344 ft 15 kts 250°
2026-04-14 10:44 50.03859 8.55155 343 ft 12 kts 250°
2026-04-14 10:44 50.03820 8.54994 340 ft 12 kts 250°
2026-04-14 10:44 50.03788 8.54863 339 ft 19 kts 250°
2026-04-14 10:45 50.03736 8.54638 335 ft 23 kts 250°
2026-04-14 10:45 50.03684 8.54421 334 ft 18 kts 249°
2026-04-14 10:45 50.03643 8.54322 333 ft 4 kts 207°
2026-04-14 10:45 50.03595 8.54323 332 ft 6 kts 166°
2026-04-14 10:46 50.03558 8.54339 331 ft 7 kts 162°
2026-04-14 10:46 50.03502 8.54433 330 ft 16 kts 90°
2026-04-14 10:46 50.03529 8.54575 332 ft 21 kts 70°
2026-04-14 10:46 50.03653 8.55093 338 ft 83 kts 70°
2026-04-14 10:47 50.03925 8.56233 345 ft 143 kts 69°
2026-04-14 10:47 50.04331 8.57948 542 ft 185 kts 69°
2026-04-14 10:47 50.04763 8.59878 1221 ft 198 kts 69°
2026-04-14 10:47 50.05220 8.61939 1918 ft 213 kts 69°
2026-04-14 10:48 50.05697 8.64140 2763 ft 222 kts 69°
2026-04-14 10:48 50.06198 8.66411 3803 ft 224 kts 69°
2026-04-14 10:48 50.06690 8.68628 4594 ft 222 kts 69°
2026-04-14 10:48 50.07206 8.70925 5239 ft 231 kts 69°
2026-04-14 10:49 50.07740 8.73285 6024 ft 233 kts 69°
2026-04-14 10:49 50.08277 8.75649 6773 ft 235 kts 69°
2026-04-14 10:49 50.08937 8.77985 7419 ft 239 kts 54°
2026-04-14 10:49 50.10235 8.79717 7666 ft 260 kts 23°
2026-04-14 10:50 50.12044 8.80069 8040 ft 275 kts 350°
2026-04-14 10:50 50.13760 8.78792 8760 ft 279 kts 320°
2026-04-14 10:50 50.15176 8.76757 9604 ft 278 kts 318°
2026-04-14 10:50 50.16664 8.74800 10224 ft 285 kts 320°
2026-04-14 10:51 50.18202 8.72774 10681 ft 299 kts 319°
2026-04-14 10:51 50.19863 8.70563 10694 ft 328 kts 319°
2026-04-14 10:51 50.21674 8.68157 10800 ft 353 kts 319°
2026-04-14 10:51 50.23600 8.65596 11008 ft 375 kts 319°
2026-04-14 10:52 50.25639 8.62884 11246 ft 397 kts 319°
2026-04-14 10:52 50.27787 8.60029 11753 ft 413 kts 319°
2026-04-14 10:52 50.29974 8.57127 12622 ft 418 kts 319°
2026-04-14 10:52 50.32225 8.54137 13462 ft 424 kts 319°
2026-04-14 10:53 50.34439 8.51098 14173 ft 425 kts 315°
2026-04-14 10:53 50.36245 8.47410 14554 ft 432 kts 298°
2026-04-14 10:53 50.37215 8.43020 15001 ft 436 kts 281°
2026-04-14 10:53 50.37711 8.38340 15734 ft 436 kts 284°
2026-04-14 10:54 50.38767 8.33906 16276 ft 440 kts 292°
2026-04-14 10:54 50.39800 8.29311 16768 ft 445 kts 286°
2026-04-14 10:54 50.40733 8.24697 17350 ft 447 kts 289°
2026-04-14 10:54 50.41770 8.20098 17864 ft 451 kts 289°
2026-04-14 10:55 50.42748 8.15407 18354 ft 456 kts 288°
2026-04-14 10:55 50.43758 8.10731 18823 ft 460 kts 289°
2026-04-14 10:55 50.44791 8.05911 19299 ft 464 kts 289°
2026-04-14 10:55 50.45811 8.01087 19762 ft 468 kts 289°
2026-04-14 10:56 50.46836 7.96243 20234 ft 472 kts 289°
2026-04-14 10:56 50.47864 7.91361 20703 ft 475 kts 289°
2026-04-14 10:56 50.48902 7.86415 21213 ft 477 kts 289°
2026-04-14 10:56 50.49950 7.81413 21659 ft 480 kts 289°
2026-04-14 10:57 50.50992 7.76411 22092 ft 484 kts 288°
2026-04-14 10:57 50.52047 7.71328 22592 ft 485 kts 288°
2026-04-14 10:57 50.53093 7.66283 23045 ft 488 kts 288°
2026-04-14 10:57 50.54133 7.61262 23425 ft 491 kts 288°
2026-04-14 10:58 50.55283 7.56120 23840 ft 494 kts 294°
2026-04-14 10:58 50.57137 7.51542 24147 ft 499 kts 312°
2026-04-14 10:58 50.59835 7.48220 24569 ft 500 kts 330°
2026-04-14 10:58 50.62907 7.45706 25142 ft 498 kts 330°
2026-04-14 10:59 50.65807 7.42767 25696 ft 497 kts 326°
2026-04-14 10:59 50.68699 7.39795 26064 ft 498 kts 328°
2026-04-14 10:59 50.71598 7.36851 26281 ft 500 kts 327°
2026-04-14 10:59 50.74457 7.33626 26374 ft 503 kts 319°
2026-04-14 11:00 50.76792 7.29502 26275 ft 508 kts 304°
2026-04-14 11:00 50.78597 7.24857 26511 ft 491 kts 302°
2026-04-14 11:00 50.80542 7.20448 27024 ft 487 kts 306°
2026-04-14 11:00 50.82480 7.16076 27549 ft 489 kts 305°
2026-04-14 11:01 50.84413 7.11680 28039 ft 489 kts 306°
2026-04-14 11:01 50.86388 7.07250 28466 ft 491 kts 306°
2026-04-14 11:01 50.88350 7.02822 28846 ft 492 kts 306°
2026-04-14 11:01 50.90288 6.98450 29174 ft 492 kts 306°
2026-04-14 11:02 50.92255 6.94005 29472 ft 493 kts 306°
2026-04-14 11:02 50.94218 6.89559 29731 ft 493 kts 306°
2026-04-14 11:02 50.96170 6.85130 29974 ft 492 kts 306°
2026-04-14 11:02 50.98112 6.80714 30206 ft 491 kts 306°
2026-04-14 11:03 51.00050 6.76301 30447 ft 490 kts 306°
2026-04-14 11:03 51.01996 6.71863 30690 ft 488 kts 306°
2026-04-14 11:03 51.03925 6.67459 30922 ft 486 kts 306°
2026-04-14 11:03 51.05856 6.63040 31154 ft 485 kts 306°
2026-04-14 11:04 51.07762 6.58670 31385 ft 483 kts 306°
2026-04-14 11:04 51.09668 6.54290 31625 ft 482 kts 306°
2026-04-14 11:04 51.11567 6.49918 31872 ft 480 kts 306°
2026-04-14 11:04 51.13435 6.45614 32122 ft 479 kts 306°
2026-04-14 11:05 51.15315 6.41275 32376 ft 477 kts 306°
2026-04-14 11:05 51.17194 6.36932 32628 ft 475 kts 306°
2026-04-14 11:05 51.19051 6.32632 32886 ft 473 kts 306°
2026-04-14 11:05 51.20919 6.28296 33155 ft 471 kts 306°
2026-04-14 11:06 51.22765 6.24000 33425 ft 469 kts 306°
2026-04-14 11:06 51.24581 6.19773 33696 ft 466 kts 306°
2026-04-14 11:06 51.26400 6.15539 33974 ft 464 kts 306°
2026-04-14 11:06 51.28215 6.11266 34252 ft 462 kts 305°
2026-04-14 11:07 51.29953 6.07005 34507 ft 460 kts 304°
2026-04-14 11:07 51.31694 6.02765 34749 ft 457 kts 305°
2026-04-14 11:07 51.33429 5.98527 34973 ft 456 kts 304°
2026-04-14 11:07 51.35160 5.94277 35190 ft 454 kts 304°
2026-04-14 11:08 51.36868 5.90092 35403 ft 453 kts 305°
2026-04-14 11:08 51.38791 5.86167 35595 ft 450 kts 317°
2026-04-14 11:08 51.41213 5.83098 35889 ft 445 kts 323°
2026-04-14 11:08 51.43589 5.79973 36435 ft 437 kts 320°
2026-04-14 11:09 51.45878 5.76870 36992 ft 430 kts 321°
2026-04-14 11:09 51.48174 5.73825 37501 ft 425 kts 321°
2026-04-14 11:09 51.50409 5.70823 37796 ft 423 kts 321°
2026-04-14 11:10 51.54929 5.64758 38203 ft 425 kts 321°
2026-04-14 11:10 51.57181 5.61731 38183 ft 431 kts 321°
2026-04-14 11:10 51.61848 5.55440 38161 ft 443 kts 321°
2026-04-14 11:11 51.66624 5.48984 38138 ft 455 kts 321°
2026-04-14 11:11 51.71493 5.42384 38098 ft 463 kts 321°
2026-04-14 11:12 51.76429 5.35675 38069 ft 468 kts 321°
2026-04-14 11:12 51.81403 5.28891 38065 ft 470 kts 320°
2026-04-14 11:13 51.86372 5.22096 38052 ft 470 kts 320°
2026-04-14 11:13 51.91341 5.15288 38068 ft 470 kts 320°
2026-04-14 11:14 51.96325 5.08437 38062 ft 470 kts 320°
2026-04-14 11:14 52.01294 5.01584 38050 ft 468 kts 320°
2026-04-14 11:15 52.06206 4.94788 38074 ft 466 kts 319°
2026-04-14 11:15 52.11136 4.87944 38071 ft 467 kts 319°
2026-04-14 11:16 52.16059 4.81091 38072 ft 466 kts 320°
2026-04-14 11:16 52.21126 4.74589 38074 ft 465 kts 316°
2026-04-14 11:17 52.25488 4.66785 38254 ft 462 kts 316°
2026-04-14 11:17 52.30063 4.59474 38231 ft 466 kts 316°
2026-04-14 11:18 52.34710 4.52136 38222 ft 466 kts 316°
2026-04-14 11:18 52.39350 4.44811 38226 ft 465 kts 316°
2026-04-14 11:19 52.43995 4.37465 38219 ft 465 kts 316°
2026-04-14 11:19 52.48623 4.30122 38233 ft 465 kts 316°
2026-04-14 11:20 52.53252 4.22756 38224 ft 465 kts 316°
2026-04-14 11:20 52.57879 4.15374 38229 ft 466 kts 315°
2026-04-14 11:21 52.62516 4.07947 38225 ft 464 kts 316°
2026-04-14 11:21 52.67106 4.00579 38235 ft 464 kts 315°
2026-04-14 11:22 52.71704 3.93171 38228 ft 464 kts 315°
2026-04-14 11:22 52.76296 3.85750 38234 ft 464 kts 315°
2026-04-14 11:23 52.80887 3.78310 38228 ft 464 kts 315°
2026-04-14 11:23 52.85451 3.70885 38224 ft 463 kts 315°
2026-04-14 11:24 52.90034 3.63413 38230 ft 462 kts 315°
2026-04-14 11:24 52.94605 3.55932 38213 ft 463 kts 315°
2026-04-14 11:25 52.99147 3.48475 38226 ft 463 kts 315°
2026-04-14 11:25 53.03729 3.40930 38228 ft 464 kts 315°
2026-04-14 11:26 53.08263 3.33430 38213 ft 462 kts 313°
2026-04-14 11:26 53.10209 3.29216 38079 ft 463 kts 300°
2026-04-14 11:26 53.11316 3.24233 37947 ft 464 kts 283°
2026-04-14 11:27 53.11880 3.18973 38414 ft 454 kts 284°
2026-04-14 11:27 53.12638 3.13904 38195 ft 462 kts 287°
2026-04-14 11:27 53.13422 3.08725 37869 ft 461 kts 285°
2026-04-14 11:27 53.14175 3.03644 38298 ft 448 kts 286°
2026-04-14 11:28 53.15706 2.93434 37849 ft 460 kts 286°
2026-04-14 11:28 53.16459 2.88383 38082 ft 451 kts 286°
2026-04-14 11:28 53.17207 2.83365 38325 ft 450 kts 286°
2026-04-14 11:29 53.17970 2.78226 38057 ft 459 kts 286°
2026-04-14 11:29 53.18727 2.73106 37882 ft 462 kts 286°
2026-04-14 11:29 53.20253 2.62738 37703 ft 461 kts 287°
2026-04-14 11:30 53.21767 2.52410 37734 ft 460 kts 286°
2026-04-14 11:30 53.23275 2.42029 37812 ft 461 kts 287°
2026-04-14 11:31 53.24777 2.31629 37872 ft 461 kts 285°
2026-04-14 11:31 53.26261 2.21265 37975 ft 461 kts 285°
2026-04-14 11:32 53.27735 2.10907 38056 ft 461 kts 286°
2026-04-14 11:32 53.29205 2.00523 38113 ft 461 kts 286°
2026-04-14 11:33 53.30662 1.90166 38088 ft 462 kts 286°
2026-04-14 11:34 53.32814 1.74693 38143 ft 457 kts 286°
2026-04-14 11:34 53.34245 1.64349 38136 ft 458 kts 286°
2026-04-14 11:35 53.35664 1.53990 38136 ft 459 kts 285°
2026-04-14 11:35 53.37077 1.43633 38130 ft 457 kts 286°
2026-04-14 11:36 53.38470 1.33321 38137 ft 457 kts 285°
2026-04-14 11:36 53.39858 1.22991 38133 ft 457 kts 285°
2026-04-14 11:37 53.41232 1.12679 38129 ft 456 kts 285°
2026-04-14 11:37 53.42609 1.02292 38129 ft 455 kts 285°
2026-04-14 11:38 53.43960 0.92005 38141 ft 455 kts 285°
2026-04-14 11:38 53.45300 0.81735 38125 ft 452 kts 285°
2026-04-14 11:39 53.46634 0.71442 38127 ft 451 kts 285°
2026-04-14 11:39 53.47941 0.61260 38125 ft 450 kts 285°
2026-04-14 11:40 53.49253 0.51006 38113 ft 447 kts 285°
2026-04-14 11:40 53.50536 0.40871 38107 ft 446 kts 285°
2026-04-14 11:41 53.51815 0.30719 38097 ft 444 kts 284°
2026-04-14 11:41 53.53080 0.20599 38110 ft 444 kts 284°
2026-04-14 11:42 53.54327 0.10544 38093 ft 442 kts 284°
2026-04-14 11:42 53.55570 0.00444 38104 ft 440 kts 284°
2026-04-14 11:43 53.56789 -0.09553 38087 ft 440 kts 284°
2026-04-14 11:43 53.58014 -0.19643 38088 ft 441 kts 284°
2026-04-14 11:44 53.59225 -0.29715 38081 ft 438 kts 284°
2026-04-14 11:44 53.60421 -0.39700 38086 ft 437 kts 284°
2026-04-14 11:45 53.61604 -0.49675 38081 ft 437 kts 284°
2026-04-14 11:45 53.62775 -0.59679 38070 ft 434 kts 284°
2026-04-14 11:46 53.63935 -0.69571 38112 ft 435 kts 283°
2026-04-14 11:46 53.65086 -0.79532 38054 ft 433 kts 283°
2026-04-14 11:47 53.66228 -0.89461 38064 ft 432 kts 283°
2026-04-14 11:47 53.67363 -0.99378 38068 ft 432 kts 283°
2026-04-14 11:48 53.68480 -1.09271 38053 ft 431 kts 283°
2026-04-14 11:48 53.69596 -1.19186 38048 ft 431 kts 283°
2026-04-14 11:49 53.70699 -1.29086 38053 ft 432 kts 283°
2026-04-14 11:49 53.71790 -1.39002 38047 ft 431 kts 283°
2026-04-14 11:50 53.72880 -1.48898 38057 ft 430 kts 283°
2026-04-14 11:50 53.73955 -1.58791 38052 ft 430 kts 283°
2026-04-14 11:51 53.75548 -1.73607 38049 ft 428 kts 283°
2026-04-14 11:51 53.76607 -1.83536 38050 ft 428 kts 283°
2026-04-14 11:52 53.77647 -1.93358 38029 ft 429 kts 282°
2026-04-14 11:52 53.78684 -2.03259 38033 ft 429 kts 282°
2026-04-14 11:53 53.79717 -2.13180 38031 ft 429 kts 282°
2026-04-14 11:53 53.80735 -2.23066 38010 ft 430 kts 283°
2026-04-14 11:54 53.81752 -2.32976 38029 ft 428 kts 282°
2026-04-14 11:54 53.82746 -2.42840 38000 ft 429 kts 282°
2026-04-14 11:55 53.83746 -2.52732 38018 ft 429 kts 282°
2026-04-14 11:55 53.84729 -2.62673 38017 ft 427 kts 282°
2026-04-14 11:56 53.85700 -2.72489 38022 ft 426 kts 282°
2026-04-14 11:56 53.86669 -2.82380 38014 ft 426 kts 282°
2026-04-14 11:57 53.87627 -2.92256 38016 ft 426 kts 282°
2026-04-14 11:57 53.88577 -3.02135 38013 ft 428 kts 282°
2026-04-14 11:58 53.89524 -3.12039 38011 ft 428 kts 282°
2026-04-14 11:58 53.90463 -3.21988 38004 ft 427 kts 282°
2026-04-14 11:59 53.91386 -3.31907 38001 ft 428 kts 282°
2026-04-14 11:59 53.92305 -3.41775 37999 ft 427 kts 282°
2026-04-14 12:00 53.93348 -3.51690 37946 ft 426 kts 289°
2026-04-14 12:00 53.95441 -3.60963 38010 ft 425 kts 290°
2026-04-14 12:01 53.97429 -3.70416 37982 ft 428 kts 290°
2026-04-14 12:01 53.99427 -3.79928 38002 ft 428 kts 290°
2026-04-14 12:02 54.01409 -3.89412 37972 ft 427 kts 290°
2026-04-14 12:02 54.03386 -3.98913 37999 ft 429 kts 289°
2026-04-14 12:03 54.05348 -4.08401 37984 ft 426 kts 290°
2026-04-14 12:03 54.07703 -4.17662 37949 ft 430 kts 297°
2026-04-14 12:04 54.10365 -4.26637 37997 ft 428 kts 296°
2026-04-14 12:04 54.13040 -4.35685 37970 ft 428 kts 295°
2026-04-14 12:05 54.15705 -4.44744 37978 ft 429 kts 296°
2026-04-14 12:05 54.18376 -4.53829 37959 ft 429 kts 295°
2026-04-14 12:06 54.21025 -4.62916 37966 ft 429 kts 295°
2026-04-14 12:06 54.23438 -4.71202 37983 ft 429 kts 294°
2026-04-14 12:07 54.26075 -4.80300 37969 ft 429 kts 295°
2026-04-14 12:07 54.28705 -4.89405 37969 ft 429 kts 294°
2026-04-14 12:08 54.31343 -4.98570 37961 ft 430 kts 294°
2026-04-14 12:08 54.33959 -5.07698 37959 ft 430 kts 294°
2026-04-14 12:09 54.36592 -5.16912 37941 ft 430 kts 294°
2026-04-14 12:09 54.39189 -5.26041 37961 ft 429 kts 294°
2026-04-14 12:10 54.41808 -5.35288 37945 ft 430 kts 294°
2026-04-14 12:10 54.44396 -5.44458 37943 ft 429 kts 294°
2026-04-14 12:11 54.46978 -5.53652 37941 ft 428 kts 293°
2026-04-14 12:11 54.49555 -5.62854 37935 ft 428 kts 294°
2026-04-14 12:12 54.52120 -5.72051 37939 ft 427 kts 293°
2026-04-14 12:12 54.54659 -5.81187 37935 ft 427 kts 293°
2026-04-14 12:13 54.57209 -5.90415 37934 ft 428 kts 292°
2026-04-14 12:13 54.59767 -5.99674 37920 ft 428 kts 292°
2026-04-14 12:14 54.62292 -6.08896 37925 ft 428 kts 292°
2026-04-14 12:14 54.64821 -6.18143 37906 ft 427 kts 292°
2026-04-14 12:15 54.67537 -6.27221 37885 ft 428 kts 296°
2026-04-14 12:15 54.68664 -6.31895 37779 ft 424 kts 284°
2026-04-14 12:15 54.69568 -6.36697 37891 ft 423 kts 288°
2026-04-14 12:16 54.71778 -6.46162 37903 ft 428 kts 289°
2026-04-14 12:16 54.74014 -6.55599 37894 ft 426 kts 290°
2026-04-14 12:17 54.76270 -6.65081 37874 ft 427 kts 289°
2026-04-14 12:17 54.78519 -6.74559 37860 ft 428 kts 289°
2026-04-14 12:18 54.80765 -6.84047 37867 ft 427 kts 288°
2026-04-14 12:18 54.83010 -6.93572 37853 ft 429 kts 288°
2026-04-14 12:19 54.85251 -7.03126 37865 ft 429 kts 289°
2026-04-14 12:19 54.87483 -7.12670 37854 ft 430 kts 288°
2026-04-14 12:20 54.89702 -7.22218 37857 ft 428 kts 288°
2026-04-14 12:20 54.91915 -7.31792 37858 ft 427 kts 288°
2026-04-14 12:21 54.94121 -7.41371 37841 ft 427 kts 288°
2026-04-14 12:21 54.96309 -7.50883 37855 ft 428 kts 288°
2026-04-14 12:22 54.98505 -7.60511 37837 ft 427 kts 288°
2026-04-14 12:22 55.00684 -7.70101 37854 ft 427 kts 287°
2026-04-14 12:23 55.02849 -7.79675 37839 ft 428 kts 287°
2026-04-14 12:23 55.05023 -7.89312 37852 ft 427 kts 287°
2026-04-14 12:24 55.07169 -7.98886 37836 ft 428 kts 287°
2026-04-14 12:24 55.09328 -8.08568 37826 ft 427 kts 287°
2026-04-14 12:25 55.11470 -8.18202 37834 ft 429 kts 286°
2026-04-14 12:25 55.13611 -8.27898 37809 ft 430 kts 286°
2026-04-14 12:26 55.15752 -8.37608 37816 ft 431 kts 287°
2026-04-14 12:26 55.17888 -8.47360 37801 ft 431 kts 286°
2026-04-14 12:27 55.20016 -8.57138 37799 ft 431 kts 286°
2026-04-14 12:27 55.22141 -8.66918 37803 ft 431 kts 285°
2026-04-14 12:28 55.24246 -8.76667 37811 ft 432 kts 285°
2026-04-14 12:28 55.26364 -8.86500 37807 ft 433 kts 285°
2026-04-14 12:29 55.28457 -8.96300 37816 ft 432 kts 285°
2026-04-14 12:29 55.30554 -9.06164 37796 ft 432 kts 284°
2026-04-14 12:30 55.32649 -9.16037 37812 ft 435 kts 284°
2026-04-14 12:30 55.34753 -9.26023 37784 ft 436 kts 285°
2026-04-14 12:31 55.36830 -9.35922 37797 ft 435 kts 284°
2026-04-14 12:31 55.38914 -9.45899 37790 ft 436 kts 284°
2026-04-14 12:32 55.40981 -9.55856 37772 ft 436 kts 284°
2026-04-14 12:32 55.43060 -9.65910 37785 ft 436 kts 284°
2026-04-14 12:33 55.45111 -9.75883 37776 ft 436 kts 283°
2026-04-14 12:33 55.47162 -9.85923 37785 ft 439 kts 283°
2026-04-14 12:34 55.49223 -9.96015 37771 ft 438 kts 283°
2026-04-14 12:34 55.51919 -10.05757 37692 ft 454 kts 296°
2026-04-14 12:35 55.55085 -10.15265 37781 ft 450 kts 293°
2026-04-14 12:35 55.58229 -10.24761 37758 ft 452 kts 293°
2026-04-14 12:36 55.61382 -10.34357 37751 ft 453 kts 293°
2026-04-14 12:36 55.64530 -10.43972 37747 ft 455 kts 293°
2026-04-14 12:37 55.67687 -10.53655 37757 ft 455 kts 293°
2026-04-14 12:37 55.70841 -10.63379 37753 ft 459 kts 293°
2026-04-14 12:38 55.75554 -10.77959 37756 ft 457 kts 292°
2026-04-14 12:39 55.78698 -10.87743 37718 ft 459 kts 292°
2026-04-14 12:39 55.81848 -10.97575 37742 ft 460 kts 292°
2026-04-14 12:40 55.84999 -11.07465 37713 ft 461 kts 292°
2026-04-14 12:40 55.88130 -11.17322 37745 ft 463 kts 292°
2026-04-14 12:41 55.91294 -11.27325 37704 ft 463 kts 292°
2026-04-14 12:41 55.94424 -11.37267 37711 ft 464 kts 292°
2026-04-14 12:42 55.97583 -11.47343 37695 ft 465 kts 292°
2026-04-14 12:42 56.00709 -11.57354 37722 ft 466 kts 292°
2026-04-14 12:43 56.03850 -11.67458 37701 ft 467 kts 291°
2026-04-14 12:43 56.06979 -11.77566 37708 ft 466 kts 291°
2026-04-14 12:44 56.10104 -11.87705 37704 ft 468 kts 291°
2026-04-14 12:44 56.13247 -11.97941 37688 ft 469 kts 291°
2026-04-14 12:45 56.17925 -12.13268 37682 ft 470 kts 291°
2026-04-14 12:45 56.21026 -12.23489 37670 ft 472 kts 292°
2026-04-14 12:46 56.24155 -12.33830 37663 ft 474 kts 291°
2026-04-14 12:46 56.27290 -12.44245 37670 ft 473 kts 292°
2026-04-14 12:47 56.30411 -12.54655 37666 ft 475 kts 292°
2026-04-14 12:47 56.33512 -12.65060 37649 ft 477 kts 291°
2026-04-14 12:48 56.36634 -12.75568 37661 ft 478 kts 291°
2026-04-14 12:48 56.39748 -12.86099 37663 ft 479 kts 291°
2026-04-14 12:49 56.42864 -12.96688 37657 ft 479 kts 291°
2026-04-14 12:49 56.45979 -13.07312 37659 ft 480 kts 291°
2026-04-14 12:50 56.50634 -13.23291 37646 ft 482 kts 291°
2026-04-14 12:51 56.53747 -13.34044 37707 ft 485 kts 291°
2026-04-14 12:51 56.55318 -13.39475 37588 ft 484 kts 291°
2026-04-14 12:51 56.56863 -13.44835 37571 ft 480 kts 291°
2026-04-14 12:52 56.59932 -13.55531 37636 ft 482 kts 291°
2026-04-14 12:52 56.63025 -13.66373 37602 ft 486 kts 291°
2026-04-14 12:53 56.66110 -13.77210 37601 ft 485 kts 291°
2026-04-14 12:53 56.69180 -13.88063 37590 ft 486 kts 291°
2026-04-14 12:54 56.72245 -13.98939 37866 ft 480 kts 291°
2026-04-14 12:54 56.73758 -14.04334 38159 ft 476 kts 291°
2026-04-14 12:54 56.75243 -14.09644 38413 ft 474 kts 291°
2026-04-14 12:54 56.76731 -14.14967 38703 ft 472 kts 291°
2026-04-14 12:55 56.78202 -14.20252 38981 ft 470 kts 291°
2026-04-14 12:55 56.79680 -14.25553 39241 ft 468 kts 291°
2026-04-14 12:55 56.81134 -14.30801 39479 ft 467 kts 291°
2026-04-14 12:56 56.84060 -14.41391 39523 ft 474 kts 292°
2026-04-14 12:56 56.87045 -14.52226 39507 ft 482 kts 291°
2026-04-14 12:57 56.90027 -14.63115 39483 ft 487 kts 291°
2026-04-14 12:57 56.93046 -14.74191 39458 ft 490 kts 291°
2026-04-14 12:58 56.96074 -14.85358 39455 ft 492 kts 291°
2026-04-14 12:58 56.99095 -14.96548 39447 ft 494 kts 291°
2026-04-14 12:59 57.01860 -15.08023 39436 ft 491 kts 286°
2026-04-14 12:59 57.04433 -15.19599 39458 ft 493 kts 287°
2026-04-14 13:00 57.07030 -15.31256 39443 ft 494 kts 287°
2026-04-14 13:00 57.09606 -15.42886 39422 ft 494 kts 287°
2026-04-14 13:01 57.12177 -15.54529 39405 ft 495 kts 287°
2026-04-14 13:01 57.14735 -15.66207 39418 ft 494 kts 287°
2026-04-14 13:02 57.17293 -15.77930 39408 ft 494 kts 287°
2026-04-14 13:02 57.19821 -15.89602 39398 ft 494 kts 286°
2026-04-14 13:03 57.22357 -16.01353 39377 ft 494 kts 286°
2026-04-14 13:03 57.24872 -16.13081 39376 ft 494 kts 287°
2026-04-14 13:04 57.27371 -16.24808 39387 ft 494 kts 287°
2026-04-14 13:04 57.29867 -16.36580 39389 ft 494 kts 287°
2026-04-14 13:05 57.32355 -16.48381 39394 ft 494 kts 287°
2026-04-14 13:05 57.34832 -16.60206 39376 ft 494 kts 287°
2026-04-14 13:06 57.37300 -16.72041 39368 ft 495 kts 286°
2026-04-14 13:06 57.39750 -16.83883 39374 ft 495 kts 286°
2026-04-14 13:07 57.42189 -16.95734 39355 ft 494 kts 286°
2026-04-14 13:07 57.44626 -17.07647 39371 ft 495 kts 286°
2026-04-14 13:08 57.47041 -17.19507 39368 ft 495 kts 286°
2026-04-14 13:08 57.49453 -17.31429 39354 ft 496 kts 286°
2026-04-14 13:09 57.51869 -17.43463 39346 ft 496 kts 286°
2026-04-14 13:09 57.54267 -17.55451 39349 ft 497 kts 286°
2026-04-14 13:10 57.56643 -17.67405 39342 ft 497 kts 285°
2026-04-14 13:10 57.59010 -17.79402 39344 ft 497 kts 285°
2026-04-14 13:11 57.61377 -17.91473 39332 ft 498 kts 285°
2026-04-14 13:11 57.63729 -18.03536 39334 ft 498 kts 285°
2026-04-14 13:12 57.66076 -18.15648 39329 ft 498 kts 285°
2026-04-14 13:12 57.68416 -18.27805 39325 ft 499 kts 285°
2026-04-14 13:13 57.70746 -18.39976 39328 ft 499 kts 285°
2026-04-14 13:13 57.73063 -18.52158 39318 ft 500 kts 285°
2026-04-14 13:14 57.75375 -18.64388 39314 ft 500 kts 285°
2026-04-14 13:14 57.77678 -18.76653 39309 ft 500 kts 285°
2026-04-14 13:15 57.79945 -18.88804 39320 ft 500 kts 285°
2026-04-14 13:15 57.82224 -19.01104 39316 ft 500 kts 285°
2026-04-14 13:16 57.84485 -19.13385 39297 ft 500 kts 285°
2026-04-14 13:16 57.86734 -19.25665 39291 ft 501 kts 285°
2026-04-14 13:17 57.88983 -19.38058 39285 ft 501 kts 285°
2026-04-14 13:17 57.91209 -19.50378 39281 ft 501 kts 285°
2026-04-14 13:18 57.93432 -19.62766 39284 ft 502 kts 285°
2026-04-14 13:18 57.95638 -19.75154 39285 ft 502 kts 284°
2026-04-14 13:19 57.97839 -19.87585 39286 ft 503 kts 284°
2026-04-14 13:19 58.00029 -20.00059 39274 ft 504 kts 285°
2026-04-14 13:20 58.01866 -20.12630 39233 ft 500 kts 279°
2026-04-14 13:20 58.03616 -20.25315 39282 ft 501 kts 281°
2026-04-14 13:21 58.05380 -20.37983 39265 ft 502 kts 281°
2026-04-14 13:21 58.07140 -20.50684 39268 ft 502 kts 281°
2026-04-14 13:22 58.08879 -20.63335 39270 ft 503 kts 281°
2026-04-14 13:22 58.10620 -20.76088 39268 ft 504 kts 281°
2026-04-14 13:23 58.12353 -20.88889 39252 ft 504 kts 281°
2026-04-14 13:23 58.14071 -21.01671 39255 ft 504 kts 281°
2026-04-14 13:24 58.15768 -21.14437 39259 ft 504 kts 281°
2026-04-14 13:24 58.18312 -21.33738 39258 ft 505 kts 281°
2026-04-14 13:25 58.19986 -21.46602 39251 ft 505 kts 281°
2026-04-14 13:26 58.23301 -21.72380 39236 ft 507 kts 280°
2026-04-14 13:26 58.24944 -21.85316 39231 ft 507 kts 280°
2026-04-14 13:27 58.26577 -21.98306 39240 ft 507 kts 280°
2026-04-14 13:27 58.28190 -22.11260 39244 ft 508 kts 281°
2026-04-14 13:28 58.29798 -22.24260 39244 ft 508 kts 280°
2026-04-14 13:28 58.31395 -22.37322 39237 ft 509 kts 281°
2026-04-14 13:29 58.32985 -22.50428 39236 ft 510 kts 280°
2026-04-14 13:29 58.34556 -22.63509 39229 ft 510 kts 281°
2026-04-14 13:30 58.36108 -22.76555 39234 ft 510 kts 280°
2026-04-14 13:30 58.37657 -22.89677 39230 ft 510 kts 280°
2026-04-14 13:31 58.39197 -23.02879 39226 ft 511 kts 280°
2026-04-14 13:31 58.40715 -23.16009 39227 ft 511 kts 280°
2026-04-14 13:32 58.42222 -23.29158 39225 ft 512 kts 280°
2026-04-14 13:32 58.43718 -23.42369 39226 ft 512 kts 280°
2026-04-14 13:33 58.45209 -23.55663 39231 ft 512 kts 280°
2026-04-14 13:33 58.46682 -23.68898 39231 ft 512 kts 279°
2026-04-14 13:34 58.48868 -23.88811 39230 ft 512 kts 279°
2026-04-14 13:35 58.50303 -24.02057 39237 ft 513 kts 279°
2026-04-14 13:35 58.51732 -24.15390 39223 ft 513 kts 279°
2026-04-14 13:36 58.53138 -24.28669 39222 ft 513 kts 279°
2026-04-14 13:36 58.54541 -24.42027 39220 ft 513 kts 279°
2026-04-14 13:37 58.55921 -24.55318 39221 ft 514 kts 279°
2026-04-14 13:37 58.57299 -24.68724 39226 ft 514 kts 279°
2026-04-14 13:38 58.58657 -24.82074 39235 ft 514 kts 279°
2026-04-14 13:38 58.60001 -24.95460 39241 ft 514 kts 278°
2026-04-14 13:39 58.61335 -25.08877 39237 ft 514 kts 279°
2026-04-14 13:39 58.62647 -25.22252 39243 ft 514 kts 279°
2026-04-14 13:40 58.63956 -25.35717 39237 ft 515 kts 279°
2026-04-14 13:40 58.65252 -25.49218 39238 ft 515 kts 279°
2026-04-14 13:41 58.66523 -25.62600 39244 ft 515 kts 279°
2026-04-14 13:41 58.67794 -25.76145 39251 ft 515 kts 278°
2026-04-14 13:42 58.69042 -25.89607 39263 ft 515 kts 278°
2026-04-14 13:42 58.70277 -26.03102 39272 ft 515 kts 278°
2026-04-14 13:43 58.71498 -26.16592 39271 ft 516 kts 278°
2026-04-14 13:43 58.72706 -26.30127 39265 ft 516 kts 278°
2026-04-14 13:44 58.73902 -26.43665 39269 ft 516 kts 278°
2026-04-14 13:44 58.75085 -26.57249 39277 ft 516 kts 278°
2026-04-14 13:45 58.76254 -26.70834 39282 ft 516 kts 277°
2026-04-14 13:45 58.77404 -26.84393 39285 ft 516 kts 277°
2026-04-14 13:46 58.78542 -26.97954 39303 ft 515 kts 277°
2026-04-14 13:46 58.79671 -27.11600 39310 ft 516 kts 277°
2026-04-14 13:47 58.80777 -27.25143 39300 ft 516 kts 277°
2026-04-14 13:47 58.81873 -27.38774 39314 ft 516 kts 277°
2026-04-14 13:48 58.82954 -27.52395 39302 ft 516 kts 277°
2026-04-14 13:48 58.84024 -27.66060 39300 ft 516 kts 276°
2026-04-14 13:49 58.85080 -27.79721 39314 ft 516 kts 276°
2026-04-14 13:49 58.86112 -27.93309 39326 ft 515 kts 276°
2026-04-14 13:50 58.87135 -28.06923 39335 ft 515 kts 276°
2026-04-14 13:50 58.88139 -28.20533 39327 ft 515 kts 276°
2026-04-14 13:51 58.89136 -28.34211 39343 ft 515 kts 276°
2026-04-14 13:51 58.90117 -28.47892 39330 ft 515 kts 277°
2026-04-14 13:52 58.91076 -28.61491 39338 ft 515 kts 277°
2026-04-14 13:52 58.92031 -28.75196 39339 ft 515 kts 276°
2026-04-14 13:53 58.92964 -28.88827 39341 ft 514 kts 276°
2026-04-14 13:53 58.93883 -29.02478 39364 ft 513 kts 276°
2026-04-14 13:54 58.94786 -29.16122 39387 ft 513 kts 276°
2026-04-14 13:54 58.95676 -29.29781 39375 ft 514 kts 276°
2026-04-14 13:55 58.96555 -29.43488 39385 ft 514 kts 276°
2026-04-14 13:55 58.97413 -29.57099 39389 ft 514 kts 276°
2026-04-14 13:56 58.98260 -29.70780 39381 ft 513 kts 275°
2026-04-14 13:56 58.99092 -29.84472 39392 ft 513 kts 275°
2026-04-14 13:57 58.99852 -29.98123 39372 ft 511 kts 271°
2026-04-14 13:57 58.99283 -30.11738 39380 ft 508 kts 262°
2026-04-14 13:58 58.98493 -30.25268 39388 ft 508 kts 262°
2026-04-14 13:58 58.97667 -30.38798 39397 ft 508 kts 262°
2026-04-14 13:59 58.96821 -30.52301 39408 ft 508 kts 262°
2026-04-14 13:59 58.95960 -30.65789 39409 ft 508 kts 261°
2026-04-14 14:00 58.95079 -30.79386 39409 ft 508 kts 261°
2026-04-14 14:00 58.94194 -30.92795 39418 ft 507 kts 261°
2026-04-14 14:01 58.93292 -31.06287 39435 ft 507 kts 261°
2026-04-14 14:01 58.92374 -31.19774 39418 ft 508 kts 262°
2026-04-14 14:02 58.91439 -31.33302 39416 ft 507 kts 262°
2026-04-14 14:02 58.90502 -31.46661 39417 ft 507 kts 262°
2026-04-14 14:03 58.89542 -31.60141 39428 ft 507 kts 262°
2026-04-14 14:03 58.88565 -31.73612 39418 ft 507 kts 261°
2026-04-14 14:04 58.87583 -31.87005 39425 ft 506 kts 261°
2026-04-14 14:04 58.86587 -32.00403 39437 ft 506 kts 261°
2026-04-14 14:05 58.85575 -32.13782 39446 ft 506 kts 261°
2026-04-14 14:05 58.84549 -32.27153 39444 ft 506 kts 261°
2026-04-14 14:06 58.83512 -32.40494 39451 ft 505 kts 261°
2026-04-14 14:06 58.82465 -32.53775 39456 ft 505 kts 261°
2026-04-14 14:07 58.81401 -32.67107 39444 ft 505 kts 260°
2026-04-14 14:07 58.80316 -32.80490 39454 ft 505 kts 260°
2026-04-14 14:08 58.79231 -32.93703 39449 ft 505 kts 260°
2026-04-14 14:08 58.78122 -33.07062 39451 ft 504 kts 260°
2026-04-14 14:09 58.77011 -33.20276 39476 ft 504 kts 260°
2026-04-14 14:09 58.75874 -33.33590 39471 ft 504 kts 260°
2026-04-14 14:10 58.74733 -33.46795 39476 ft 504 kts 261°
2026-04-14 14:10 58.73576 -33.60023 39468 ft 504 kts 260°
2026-04-14 14:11 58.72403 -33.73268 39475 ft 503 kts 259°
2026-04-14 14:11 58.71223 -33.86451 39488 ft 503 kts 259°
2026-04-14 14:12 58.70024 -33.99665 39500 ft 503 kts 259°
2026-04-14 14:12 58.68813 -34.12835 39502 ft 503 kts 259°
2026-04-14 14:13 58.67593 -34.25987 39506 ft 503 kts 259°
2026-04-14 14:13 58.66361 -34.39087 39511 ft 502 kts 259°
2026-04-14 14:14 58.65110 -34.52268 39506 ft 502 kts 259°
2026-04-14 14:14 58.63848 -34.65382 39516 ft 502 kts 259°
2026-04-14 14:15 58.62577 -34.78449 39528 ft 502 kts 259°
2026-04-14 14:15 58.61291 -34.91540 39525 ft 502 kts 259°
2026-04-14 14:16 58.59992 -35.04609 39539 ft 501 kts 259°
2026-04-14 14:16 58.58686 -35.17614 39536 ft 500 kts 259°
2026-04-14 14:17 58.56700 -35.37122 39545 ft 499 kts 259°
2026-04-14 14:17 58.55355 -35.50141 39548 ft 499 kts 259°
2026-04-14 14:18 58.54009 -35.63056 39558 ft 499 kts 259°
2026-04-14 14:18 58.52650 -35.75971 39562 ft 499 kts 258°
2026-04-14 14:19 58.51268 -35.88921 39565 ft 499 kts 258°
2026-04-14 14:19 58.49876 -36.01853 39573 ft 499 kts 258°
2026-04-14 14:20 58.48473 -36.14778 39584 ft 498 kts 258°
2026-04-14 14:20 58.47061 -36.27661 39587 ft 498 kts 258°
2026-04-14 14:21 58.45634 -36.40525 39586 ft 498 kts 258°
2026-04-14 14:21 58.44192 -36.53413 39591 ft 497 kts 258°
2026-04-14 14:22 58.42739 -36.66266 39589 ft 498 kts 258°
2026-04-14 14:22 58.41277 -36.79085 39597 ft 498 kts 258°
2026-04-14 14:23 58.39803 -36.91880 39609 ft 497 kts 258°
2026-04-14 14:23 58.38311 -37.04707 39608 ft 496 kts 258°
2026-04-14 14:24 58.36813 -37.17475 39618 ft 496 kts 258°
2026-04-14 14:24 58.35309 -37.30177 39620 ft 495 kts 258°
2026-04-14 14:25 58.33786 -37.42899 39618 ft 496 kts 258°
2026-04-14 14:25 58.32244 -37.55679 39623 ft 496 kts 258°
2026-04-14 14:26 58.30701 -37.68354 39629 ft 495 kts 257°
2026-04-14 14:26 58.29150 -37.80981 39641 ft 493 kts 257°
2026-04-14 14:27 58.27580 -37.93653 39645 ft 493 kts 257°
2026-04-14 14:27 58.26006 -38.06240 39656 ft 493 kts 257°
2026-04-14 14:28 58.24414 -38.18847 39652 ft 494 kts 257°
2026-04-14 14:28 58.22809 -38.31462 39666 ft 493 kts 257°
2026-04-14 14:29 58.21199 -38.44006 39655 ft 494 kts 257°
2026-04-14 14:29 58.19575 -38.56553 39674 ft 493 kts 257°
2026-04-14 14:30 58.17940 -38.69075 39667 ft 492 kts 256°
2026-04-14 14:30 58.16285 -38.81646 39675 ft 491 kts 256°
2026-04-14 14:31 58.14633 -38.94099 39683 ft 491 kts 256°
2026-04-14 14:31 58.12965 -39.06554 39681 ft 491 kts 256°
2026-04-14 14:32 58.11289 -39.18975 39690 ft 491 kts 256°
2026-04-14 14:32 58.09599 -39.31400 39691 ft 491 kts 256°
2026-04-14 14:33 58.07894 -39.43821 39701 ft 490 kts 257°
2026-04-14 14:33 58.06182 -39.56207 39694 ft 490 kts 257°
2026-04-14 14:34 58.03584 -39.74812 39704 ft 490 kts 256°
2026-04-14 14:35 58.01845 -39.87148 39714 ft 490 kts 256°
2026-04-14 14:35 58.00083 -39.99491 39719 ft 491 kts 256°
2026-04-14 14:36 57.98236 -40.11832 39722 ft 492 kts 255°
2026-04-14 14:36 57.96346 -40.24136 39726 ft 491 kts 255°
2026-04-14 14:37 57.94453 -40.36414 39735 ft 489 kts 255°
2026-04-14 14:37 57.92549 -40.48694 39737 ft 490 kts 255°
2026-04-14 14:38 57.90651 -40.60847 39734 ft 490 kts 255°
2026-04-14 14:38 57.88731 -40.73056 39740 ft 490 kts 255°
2026-04-14 14:39 57.86793 -40.85291 39736 ft 490 kts 255°
2026-04-14 14:39 57.84841 -40.97530 39743 ft 489 kts 255°
2026-04-14 14:40 57.82892 -41.09658 39745 ft 488 kts 255°
2026-04-14 14:40 57.80927 -41.21802 39754 ft 488 kts 255°
2026-04-14 14:41 57.78969 -41.33818 39760 ft 488 kts 255°
2026-04-14 14:41 57.76976 -41.45958 39769 ft 487 kts 255°
2026-04-14 14:42 57.74984 -41.58024 39779 ft 487 kts 255°
2026-04-14 14:42 57.72986 -41.70036 39781 ft 485 kts 254°
2026-04-14 14:43 57.70987 -41.81974 39780 ft 485 kts 254°
2026-04-14 14:43 57.68965 -41.93966 39781 ft 484 kts 254°
2026-04-14 14:44 57.66946 -42.05863 39789 ft 484 kts 254°
2026-04-14 14:44 57.64907 -42.17800 39791 ft 484 kts 254°
2026-04-14 14:45 57.62859 -42.29710 39798 ft 484 kts 254°
2026-04-14 14:45 57.60801 -42.41597 39799 ft 483 kts 254°
2026-04-14 14:46 57.58746 -42.53389 39803 ft 483 kts 254°
2026-04-14 14:46 57.56667 -42.65246 39798 ft 480 kts 253°
2026-04-14 14:47 57.54606 -42.76926 39802 ft 480 kts 253°
2026-04-14 14:47 57.52514 -42.88700 39808 ft 480 kts 253°
2026-04-14 14:48 57.50411 -43.00460 39805 ft 479 kts 253°
2026-04-14 14:48 57.48312 -43.12129 39811 ft 480 kts 253°
2026-04-14 14:49 57.46195 -43.23826 39813 ft 481 kts 253°
2026-04-14 14:49 57.44056 -43.35572 39819 ft 480 kts 253°
2026-04-14 14:50 57.41929 -43.47173 39830 ft 480 kts 252°
2026-04-14 14:50 57.39775 -43.58843 39839 ft 479 kts 253°
2026-04-14 14:51 57.37611 -43.70499 39843 ft 479 kts 252°
2026-04-14 14:51 57.35446 -43.82096 39850 ft 480 kts 252°
2026-04-14 14:52 57.33270 -43.93680 39846 ft 480 kts 252°
2026-04-14 14:52 57.31067 -44.05340 39845 ft 480 kts 252°
2026-04-14 14:53 57.28871 -44.16886 39847 ft 480 kts 252°
2026-04-14 14:53 57.26661 -44.28427 39857 ft 481 kts 252°
2026-04-14 14:54 57.24429 -44.40027 39853 ft 481 kts 252°
2026-04-14 14:54 57.22183 -44.51631 39858 ft 481 kts 252°
2026-04-14 14:55 57.19931 -44.63187 39847 ft 480 kts 252°
2026-04-14 14:55 57.17676 -44.74701 39863 ft 481 kts 251°
2026-04-14 14:56 57.14267 -44.91970 39871 ft 481 kts 251°
2026-04-14 14:56 57.11980 -45.03471 39869 ft 482 kts 251°
2026-04-14 14:57 57.09679 -45.14978 39874 ft 481 kts 251°
2026-04-14 14:57 57.07359 -45.26515 39865 ft 483 kts 251°
2026-04-14 14:58 57.05036 -45.37991 39863 ft 482 kts 251°
2026-04-14 14:58 57.02703 -45.49449 39867 ft 481 kts 251°
2026-04-14 14:59 57.00373 -45.60838 39866 ft 480 kts 251°
2026-04-14 14:59 56.98022 -45.72266 39872 ft 480 kts 250°
2026-04-14 15:00 56.95662 -45.83666 39864 ft 480 kts 250°
2026-04-14 15:00 56.93299 -45.95016 39875 ft 481 kts 250°
2026-04-14 15:01 56.90908 -46.06436 39875 ft 482 kts 250°
2026-04-14 15:01 56.88511 -46.17822 39870 ft 482 kts 250°
2026-04-14 15:02 56.86111 -46.29161 39882 ft 480 kts 250°
2026-04-14 15:02 56.83709 -46.40445 39891 ft 478 kts 250°
2026-04-14 15:03 56.81308 -46.51663 39903 ft 477 kts 250°
2026-04-14 15:03 56.78896 -46.62866 39901 ft 477 kts 250°
2026-04-14 15:04 56.76461 -46.74118 39908 ft 477 kts 250°
2026-04-14 15:04 56.74027 -46.85309 39909 ft 477 kts 250°
2026-04-14 15:05 56.71593 -46.96434 39914 ft 477 kts 249°
2026-04-14 15:05 56.69139 -47.07589 39915 ft 476 kts 250°
2026-04-14 15:06 56.66675 -47.18733 39911 ft 476 kts 250°
2026-04-14 15:06 56.64207 -47.29841 39911 ft 476 kts 250°
2026-04-14 15:07 56.61728 -47.40929 39912 ft 477 kts 250°
2026-04-14 15:07 56.59240 -47.52003 39896 ft 477 kts 250°
2026-04-14 15:08 56.56724 -47.63145 39888 ft 477 kts 250°
2026-04-14 15:08 56.54211 -47.74212 39901 ft 476 kts 249°
2026-04-14 15:09 56.51704 -47.85194 39903 ft 476 kts 249°
2026-04-14 15:09 56.49169 -47.96240 39903 ft 477 kts 249°
2026-04-14 15:10 56.46636 -48.07229 39900 ft 476 kts 249°
2026-04-14 15:10 56.44084 -48.18242 39902 ft 475 kts 249°
2026-04-14 15:11 56.41545 -48.29141 39898 ft 475 kts 249°
2026-04-14 15:11 56.38985 -48.40072 39899 ft 475 kts 249°
2026-04-14 15:12 56.36402 -48.51044 39900 ft 475 kts 249°
2026-04-14 15:12 56.33826 -48.61932 39903 ft 475 kts 249°
2026-04-14 15:13 56.31237 -48.72815 39910 ft 475 kts 248°
2026-04-14 15:13 56.28639 -48.83688 39908 ft 476 kts 248°
2026-04-14 15:14 56.26025 -48.94570 39908 ft 475 kts 248°
2026-04-14 15:14 56.23412 -49.05396 39905 ft 475 kts 248°
2026-04-14 15:15 56.20776 -49.16262 39905 ft 474 kts 248°
2026-04-14 15:15 56.18147 -49.27044 39900 ft 473 kts 248°
2026-04-14 15:16 56.15514 -49.37796 39892 ft 473 kts 248°
2026-04-14 15:16 56.12883 -49.48481 39880 ft 472 kts 248°
2026-04-14 15:17 56.10226 -49.59217 39882 ft 472 kts 248°
2026-04-14 15:17 56.07557 -49.69953 39884 ft 474 kts 247°
2026-04-14 15:18 56.04877 -49.80679 39874 ft 474 kts 247°
2026-04-14 15:18 56.02206 -49.91316 39870 ft 473 kts 247°
2026-04-14 15:19 55.99519 -50.02000 39877 ft 473 kts 248°
2026-04-14 15:19 55.96947 -50.12770 39889 ft 473 kts 248°
2026-04-14 15:20 55.94351 -50.23506 39887 ft 472 kts 248°
2026-04-14 15:20 55.91755 -50.34188 39889 ft 471 kts 248°
2026-04-14 15:21 55.89166 -50.44796 39889 ft 471 kts 248°
2026-04-14 15:21 55.86539 -50.55503 39880 ft 472 kts 248°
2026-04-14 15:22 55.83921 -50.66124 39884 ft 473 kts 248°
2026-04-14 15:22 55.81280 -50.76780 39880 ft 473 kts 248°
2026-04-14 15:23 55.78630 -50.87425 39888 ft 473 kts 248°
2026-04-14 15:23 55.75964 -50.98087 39895 ft 473 kts 248°
2026-04-14 15:24 55.73315 -51.08624 39900 ft 472 kts 248°
2026-04-14 15:24 55.70630 -51.19257 39897 ft 471 kts 248°
2026-04-14 15:25 55.67959 -51.29780 39903 ft 471 kts 248°
2026-04-14 15:25 55.65281 -51.40282 39902 ft 471 kts 248°
2026-04-14 15:26 55.62586 -51.50805 39901 ft 471 kts 248°
2026-04-14 15:26 55.59889 -51.61284 39898 ft 472 kts 248°
2026-04-14 15:27 55.57167 -51.71807 39905 ft 472 kts 247°
2026-04-14 15:27 55.54431 -51.82344 39902 ft 473 kts 246°
2026-04-14 15:28 55.51696 -51.92817 39903 ft 472 kts 247°
2026-04-14 15:28 55.48950 -52.03289 39898 ft 473 kts 247°
2026-04-14 15:29 55.46201 -52.13725 39889 ft 472 kts 247°
2026-04-14 15:29 55.43432 -52.24188 39885 ft 471 kts 247°
2026-04-14 15:30 55.40683 -52.34529 39883 ft 471 kts 247°
2026-04-14 15:30 55.37907 -52.44920 39884 ft 471 kts 247°
2026-04-14 15:31 55.35131 -52.55264 39882 ft 471 kts 247°
2026-04-14 15:31 55.32326 -52.65670 39885 ft 471 kts 246°
2026-04-14 15:32 55.29524 -52.76016 39893 ft 471 kts 246°
2026-04-14 15:32 55.26723 -52.86311 39886 ft 471 kts 246°
2026-04-14 15:33 55.23915 -52.96593 39891 ft 471 kts 246°
2026-04-14 15:33 55.21081 -53.06915 39894 ft 471 kts 246°
2026-04-14 15:34 55.18240 -53.17228 39886 ft 471 kts 246°
2026-04-14 15:34 55.15414 -53.27430 39888 ft 471 kts 246°
2026-04-14 15:35 55.12548 -53.37726 39886 ft 471 kts 246°
2026-04-14 15:35 55.09695 -53.47932 39887 ft 471 kts 246°
2026-04-14 15:36 55.06835 -53.58133 39888 ft 470 kts 246°
2026-04-14 15:36 55.03955 -53.68348 39891 ft 469 kts 245°
2026-04-14 15:37 55.01078 -53.78506 39889 ft 470 kts 245°
2026-04-14 15:37 54.98208 -53.88601 39890 ft 468 kts 245°
2026-04-14 15:38 54.95327 -53.98685 39893 ft 469 kts 245°
2026-04-14 15:38 54.92412 -54.08848 39895 ft 470 kts 245°
2026-04-14 15:39 54.89514 -54.18910 39883 ft 470 kts 245°
2026-04-14 15:39 54.86579 -54.29049 39889 ft 470 kts 246°
2026-04-14 15:40 54.83646 -54.39147 39885 ft 470 kts 245°
2026-04-14 15:40 54.80714 -54.49196 39886 ft 469 kts 245°
2026-04-14 15:41 54.77774 -54.59225 39874 ft 470 kts 245°
2026-04-14 15:41 54.74820 -54.69259 39879 ft 470 kts 245°
2026-04-14 15:42 54.71858 -54.79280 39873 ft 470 kts 245°
2026-04-14 15:42 54.68890 -54.89277 39875 ft 470 kts 245°
2026-04-14 15:43 54.65903 -54.99301 39873 ft 470 kts 245°
2026-04-14 15:43 54.62909 -55.09300 39868 ft 470 kts 245°
2026-04-14 15:44 54.59931 -55.19201 39864 ft 470 kts 245°
2026-04-14 15:44 54.56918 -55.29182 39867 ft 469 kts 245°
2026-04-14 15:45 54.53899 -55.39139 39866 ft 470 kts 245°
2026-04-14 15:45 54.50885 -55.49039 39864 ft 470 kts 245°
2026-04-14 15:46 54.47864 -55.58925 39868 ft 470 kts 245°
2026-04-14 15:46 54.44820 -55.68838 39866 ft 471 kts 244°
2026-04-14 15:47 54.41765 -55.78749 39864 ft 471 kts 244°
2026-04-14 15:47 54.38714 -55.88612 39864 ft 470 kts 244°
2026-04-14 15:48 54.35660 -55.98430 39858 ft 471 kts 244°
2026-04-14 15:48 54.32587 -56.08276 39864 ft 471 kts 244°
2026-04-14 15:49 54.29492 -56.18151 39859 ft 470 kts 244°
2026-04-14 15:49 54.26416 -56.27925 39858 ft 469 kts 244°
2026-04-14 15:50 54.23326 -56.37709 39861 ft 470 kts 244°
2026-04-14 15:50 54.20237 -56.47446 39861 ft 470 kts 245°
2026-04-14 15:51 54.17124 -56.57218 39865 ft 470 kts 245°
2026-04-14 15:51 54.14008 -56.66965 39867 ft 470 kts 244°
2026-04-14 15:52 54.10889 -56.76680 39867 ft 470 kts 244°
2026-04-14 15:52 54.07749 -56.86416 39867 ft 471 kts 244°
2026-04-14 15:53 54.04597 -56.96157 39869 ft 472 kts 244°
2026-04-14 15:53 54.02116 -57.06271 39753 ft 465 kts 260°
2026-04-14 15:54 54.00514 -57.16881 39897 ft 463 kts 256°
2026-04-14 15:54 53.99662 -57.22079 39830 ft 465 kts 256°
2026-04-14 15:55 53.97893 -57.32636 39808 ft 465 kts 256°
2026-04-14 15:55 53.96117 -57.43136 39796 ft 466 kts 256°
2026-04-14 15:56 53.94315 -57.53726 39769 ft 466 kts 256°
2026-04-14 15:56 53.92520 -57.64214 39772 ft 466 kts 256°
2026-04-14 15:57 53.90718 -57.74668 39789 ft 466 kts 256°
2026-04-14 15:57 53.88893 -57.85202 39786 ft 466 kts 256°
2026-04-14 15:58 53.87064 -57.95688 39786 ft 466 kts 256°
2026-04-14 15:58 53.85233 -58.06133 39779 ft 465 kts 256°
2026-04-14 15:59 53.83390 -58.16577 39785 ft 465 kts 256°
2026-04-14 15:59 53.81530 -58.27071 39780 ft 464 kts 256°
2026-04-14 16:00 53.79682 -58.37429 39787 ft 465 kts 256°
2026-04-14 16:00 53.77810 -58.47859 39800 ft 464 kts 256°
2026-04-14 16:01 53.75926 -58.58290 39783 ft 464 kts 256°
2026-04-14 16:01 53.74050 -58.68617 39765 ft 464 kts 255°
2026-04-14 16:02 53.72155 -58.79013 39754 ft 464 kts 255°
2026-04-14 16:02 53.70254 -58.89359 39818 ft 463 kts 255°
2026-04-14 16:03 53.68357 -58.99643 39840 ft 462 kts 255°
2026-04-14 16:03 53.66444 -59.09949 39850 ft 464 kts 255°
2026-04-14 16:04 53.64516 -59.20284 39837 ft 463 kts 255°
2026-04-14 16:04 53.62580 -59.30597 39837 ft 463 kts 255°
2026-04-14 16:05 53.60645 -59.40848 39862 ft 463 kts 255°
2026-04-14 16:05 53.58684 -59.51180 39882 ft 462 kts 255°
2026-04-14 16:06 53.56728 -59.61424 39890 ft 462 kts 255°
2026-04-14 16:06 53.54771 -59.71639 39902 ft 461 kts 255°
2026-04-14 16:07 53.52801 -59.81856 39913 ft 462 kts 255°
2026-04-14 16:07 53.50821 -59.92068 39925 ft 462 kts 255°
2026-04-14 16:08 53.48831 -60.02282 39916 ft 461 kts 255°
2026-04-14 16:08 53.46835 -60.12458 39928 ft 461 kts 255°
2026-04-14 16:09 53.44832 -60.22631 39927 ft 461 kts 255°
2026-04-14 16:09 53.42834 -60.32738 39923 ft 460 kts 255°
2026-04-14 16:10 53.40805 -60.42925 39937 ft 459 kts 255°
2026-04-14 16:10 53.38784 -60.53020 39929 ft 460 kts 255°
2026-04-14 16:11 53.36754 -60.63118 39929 ft 459 kts 255°
2026-04-14 16:11 53.34712 -60.73206 39966 ft 459 kts 254°
2026-04-14 16:12 53.32671 -60.83257 39956 ft 459 kts 254°
2026-04-14 16:12 53.30613 -60.93331 39962 ft 459 kts 254°
2026-04-14 16:13 53.28559 -61.03345 39936 ft 459 kts 255°
2026-04-14 16:13 53.26495 -61.13364 39956 ft 459 kts 254°
2026-04-14 16:14 53.24419 -61.23381 39952 ft 458 kts 254°
2026-04-14 16:14 53.22331 -61.33390 39963 ft 459 kts 254°
2026-04-14 16:15 53.20240 -61.43370 39964 ft 459 kts 255°
2026-04-14 16:15 53.18124 -61.53422 39963 ft 460 kts 254°
2026-04-14 16:16 53.16005 -61.63441 39958 ft 459 kts 255°
2026-04-14 16:16 53.13893 -61.73379 39986 ft 459 kts 254°
2026-04-14 16:17 53.11762 -61.83351 39961 ft 457 kts 254°
2026-04-14 16:17 53.09633 -61.93279 39979 ft 458 kts 253°
2026-04-14 16:18 53.07497 -62.03188 39973 ft 458 kts 254°
2026-04-14 16:18 53.05347 -62.13103 39995 ft 457 kts 254°
2026-04-14 16:19 53.03190 -62.23007 40008 ft 457 kts 254°
2026-04-14 16:19 53.01027 -62.32890 40006 ft 457 kts 254°
2026-04-14 16:20 52.98866 -62.42722 39989 ft 456 kts 254°
2026-04-14 16:20 52.96692 -62.52566 39983 ft 457 kts 254°
2026-04-14 16:21 52.94506 -62.62406 39988 ft 454 kts 254°
2026-04-14 16:21 52.92333 -62.72144 40001 ft 455 kts 253°
2026-04-14 16:22 52.90132 -62.81976 39991 ft 454 kts 253°
2026-04-14 16:22 52.87945 -62.91697 40003 ft 454 kts 253°
2026-04-14 16:23 52.85746 -63.01416 39998 ft 453 kts 253°
2026-04-14 16:23 52.83541 -63.11120 39988 ft 452 kts 253°
2026-04-14 16:24 52.81330 -63.20813 39971 ft 450 kts 253°
2026-04-14 16:24 52.79126 -63.30415 39966 ft 451 kts 253°
2026-04-14 16:25 52.76903 -63.40073 39965 ft 451 kts 253°
2026-04-14 16:25 52.74678 -63.49685 39964 ft 451 kts 253°
2026-04-14 16:26 52.72439 -63.59321 39971 ft 451 kts 253°
2026-04-14 16:26 52.70191 -63.68952 39986 ft 450 kts 253°
2026-04-14 16:27 52.67947 -63.78513 39986 ft 450 kts 253°
2026-04-14 16:27 52.65704 -63.88037 39986 ft 450 kts 253°
2026-04-14 16:28 52.63443 -63.97595 39997 ft 449 kts 253°
2026-04-14 16:28 52.61175 -64.07135 39993 ft 449 kts 253°
2026-04-14 16:29 52.58900 -64.16673 40009 ft 449 kts 253°
2026-04-14 16:29 52.56625 -64.26153 40018 ft 448 kts 253°
2026-04-14 16:30 52.54354 -64.35592 40022 ft 447 kts 253°
2026-04-14 16:30 52.52064 -64.45064 40025 ft 447 kts 253°
2026-04-14 16:31 52.49765 -64.54528 40034 ft 447 kts 253°
2026-04-14 16:31 52.47469 -64.63930 40028 ft 446 kts 253°
2026-04-14 16:32 52.45164 -64.73336 40041 ft 448 kts 252°
2026-04-14 16:32 52.42852 -64.82741 40055 ft 447 kts 252°
2026-04-14 16:33 52.40516 -64.92191 40037 ft 447 kts 252°
2026-04-14 16:33 52.38195 -65.01547 40040 ft 446 kts 252°
2026-04-14 16:34 52.35859 -65.10909 40039 ft 446 kts 252°
2026-04-14 16:34 52.33531 -65.20226 40019 ft 445 kts 252°
2026-04-14 16:35 52.31193 -65.29523 40030 ft 445 kts 252°
2026-04-14 16:35 52.28835 -65.38866 40031 ft 445 kts 252°
2026-04-14 16:36 52.26491 -65.48115 40029 ft 443 kts 253°
2026-04-14 16:36 52.24141 -65.57345 40060 ft 444 kts 252°
2026-04-14 16:37 52.21768 -65.66631 40040 ft 442 kts 252°
2026-04-14 16:37 52.19399 -65.75868 40054 ft 444 kts 252°
2026-04-14 16:38 52.17034 -65.85046 40050 ft 443 kts 252°
2026-04-14 16:38 52.14646 -65.94260 40045 ft 444 kts 252°
2026-04-14 16:39 52.12252 -66.03496 40052 ft 443 kts 252°
2026-04-14 16:39 52.09874 -66.12618 40055 ft 442 kts 252°
2026-04-14 16:40 52.07473 -66.21793 40056 ft 442 kts 252°
2026-04-14 16:40 52.05061 -66.30946 40061 ft 440 kts 252°
2026-04-14 16:41 52.02658 -66.40077 40056 ft 441 kts 252°
2026-04-14 16:41 52.00252 -66.49134 40061 ft 441 kts 252°
2026-04-14 16:42 51.97824 -66.58276 40070 ft 442 kts 252°
2026-04-14 16:42 51.95393 -66.67363 40084 ft 440 kts 251°
2026-04-14 16:43 51.92965 -66.76428 40081 ft 440 kts 251°
2026-04-14 16:43 51.90528 -66.85465 40074 ft 440 kts 252°
2026-04-14 16:44 51.88089 -66.94491 40053 ft 437 kts 252°
2026-04-14 16:44 51.85666 -67.03426 40040 ft 438 kts 252°
2026-04-14 16:45 51.81999 -67.16870 40018 ft 435 kts 252°
2026-04-14 16:45 51.79564 -67.25754 39984 ft 435 kts 252°
2026-04-14 16:46 51.77115 -67.34661 39973 ft 433 kts 252°
2026-04-14 16:46 51.74668 -67.43496 40005 ft 435 kts 252°
2026-04-14 16:47 51.72213 -67.52377 40008 ft 437 kts 252°
2026-04-14 16:47 51.69752 -67.61233 40014 ft 431 kts 252°
2026-04-14 16:48 51.67292 -67.70021 40005 ft 435 kts 252°
2026-04-14 16:48 51.64828 -67.78818 40022 ft 433 kts 251°
2026-04-14 16:49 51.62348 -67.87643 40004 ft 431 kts 251°
2026-04-14 16:49 51.59873 -67.96381 40004 ft 432 kts 252°
2026-04-14 16:50 51.57396 -68.05153 40025 ft 433 kts 252°
2026-04-14 16:50 51.54917 -68.13844 40035 ft 430 kts 251°
2026-04-14 16:51 51.52433 -68.22561 40065 ft 430 kts 251°
2026-04-14 16:51 51.49941 -68.31248 40082 ft 428 kts 251°
2026-04-14 16:52 51.47459 -68.39880 40108 ft 429 kts 252°
2026-04-14 16:52 51.44962 -68.48509 40114 ft 428 kts 252°
2026-04-14 16:53 51.42480 -68.57080 40097 ft 427 kts 252°
2026-04-14 16:53 51.39975 -68.65717 40106 ft 427 kts 251°
2026-04-14 16:54 51.37477 -68.74232 40079 ft 427 kts 251°
2026-04-14 16:54 51.34963 -68.82842 40086 ft 427 kts 251°
2026-04-14 16:55 51.32461 -68.91329 40116 ft 426 kts 251°
2026-04-14 16:55 51.29933 -68.99916 40128 ft 428 kts 251°
2026-04-14 16:56 51.27419 -69.08421 40115 ft 424 kts 251°
2026-04-14 16:56 51.24895 -69.16916 40107 ft 422 kts 251°
2026-04-14 16:57 51.22375 -69.25329 40131 ft 426 kts 251°
2026-04-14 16:57 51.19841 -69.33810 40095 ft 421 kts 251°
2026-04-14 16:58 51.17336 -69.42172 40068 ft 421 kts 251°
2026-04-14 16:58 51.14794 -69.50607 40022 ft 425 kts 251°
2026-04-14 16:59 51.12255 -69.58991 40061 ft 422 kts 251°
2026-04-14 16:59 51.09705 -69.67408 40048 ft 422 kts 251°
2026-04-14 17:00 51.07148 -69.75796 40025 ft 422 kts 250°
2026-04-14 17:00 51.04606 -69.84113 40058 ft 422 kts 251°
2026-04-14 17:01 51.02040 -69.92484 40040 ft 423 kts 250°
2026-04-14 17:01 50.99490 -70.00776 40054 ft 420 kts 251°
2026-04-14 17:02 50.96934 -70.09078 40071 ft 422 kts 250°
2026-04-14 17:02 50.94366 -70.17358 40059 ft 418 kts 250°
2026-04-14 17:03 50.91800 -70.25614 40076 ft 419 kts 250°
2026-04-14 17:03 50.89218 -70.33892 40080 ft 420 kts 251°
2026-04-14 17:04 50.86636 -70.42143 40092 ft 420 kts 251°
2026-04-14 17:04 50.84049 -70.50394 40073 ft 421 kts 251°
2026-04-14 17:05 50.81458 -70.58618 40075 ft 420 kts 250°
2026-04-14 17:05 50.78858 -70.66843 40097 ft 417 kts 250°
2026-04-14 17:06 50.76271 -70.75005 40052 ft 418 kts 250°
2026-04-14 17:06 50.73663 -70.83186 40095 ft 417 kts 250°
2026-04-14 17:07 50.71085 -70.91272 40047 ft 415 kts 250°
2026-04-14 17:07 50.68474 -70.99423 40078 ft 417 kts 250°
2026-04-14 17:08 50.65871 -71.07543 40027 ft 415 kts 249°
2026-04-14 17:08 50.63266 -71.15599 40080 ft 416 kts 250°
2026-04-14 17:09 50.60656 -71.23685 40045 ft 413 kts 249°
2026-04-14 17:09 50.58047 -71.31735 40067 ft 415 kts 250°
2026-04-14 17:10 50.55426 -71.39770 40079 ft 414 kts 249°
2026-04-14 17:10 50.52827 -71.47740 40069 ft 413 kts 250°
2026-04-14 17:11 50.50201 -71.55763 40036 ft 412 kts 249°
2026-04-14 17:11 50.47595 -71.63694 40032 ft 412 kts 250°
2026-04-14 17:12 50.44958 -71.71677 40071 ft 414 kts 249°
2026-04-14 17:12 50.42336 -71.79598 40063 ft 412 kts 249°
2026-04-14 17:13 50.39706 -71.87544 40050 ft 409 kts 249°
2026-04-14 17:13 50.37094 -71.95390 40063 ft 409 kts 249°
2026-04-14 17:14 50.34479 -72.03221 40070 ft 407 kts 249°
2026-04-14 17:14 50.31858 -72.11054 40121 ft 408 kts 249°
2026-04-14 17:15 50.29233 -72.18855 40096 ft 408 kts 249°
2026-04-14 17:15 50.26579 -72.26743 40126 ft 407 kts 249°
2026-04-14 17:16 50.23969 -72.34471 40116 ft 403 kts 249°
2026-04-14 17:16 50.21340 -72.42226 40114 ft 407 kts 249°
2026-04-14 17:17 50.18716 -72.49928 40080 ft 403 kts 249°
2026-04-14 17:17 50.16083 -72.57653 40098 ft 403 kts 248°
2026-04-14 17:18 50.13463 -72.65316 40073 ft 401 kts 248°
2026-04-14 17:18 50.10831 -72.72974 40151 ft 404 kts 248°
2026-04-14 17:19 50.08214 -72.80582 40104 ft 398 kts 248°
2026-04-14 17:19 50.05592 -72.88191 40095 ft 401 kts 248°
2026-04-14 17:20 50.02959 -72.95789 40104 ft 399 kts 247°
2026-04-14 17:20 50.00331 -73.03340 40115 ft 399 kts 247°
2026-04-14 17:21 49.97709 -73.10861 40070 ft 396 kts 248°
2026-04-14 17:21 49.95100 -73.18351 40099 ft 398 kts 247°
2026-04-14 17:22 49.92462 -73.25864 40071 ft 394 kts 247°
2026-04-14 17:22 49.89864 -73.33261 40091 ft 390 kts 247°
2026-04-14 17:23 49.87271 -73.40622 40045 ft 391 kts 247°
2026-04-14 17:23 49.84662 -73.48006 40066 ft 391 kts 248°
2026-04-14 17:24 49.82061 -73.55351 40056 ft 390 kts 246°
2026-04-14 17:24 49.79440 -73.62715 40062 ft 391 kts 246°
2026-04-14 17:25 49.76826 -73.70039 40077 ft 393 kts 246°
2026-04-14 17:25 49.74198 -73.77396 40069 ft 392 kts 246°
2026-04-14 17:26 49.71574 -73.84736 40089 ft 391 kts 246°
2026-04-14 17:26 49.68936 -73.92065 40064 ft 391 kts 245°
2026-04-14 17:27 49.66291 -73.99383 40065 ft 393 kts 246°
2026-04-14 17:27 49.63628 -74.06748 40065 ft 393 kts 245°
2026-04-14 17:28 49.60978 -74.14059 40052 ft 392 kts 246°
2026-04-14 17:28 49.58321 -74.21365 40056 ft 395 kts 245°
2026-04-14 17:29 49.55636 -74.28729 40050 ft 394 kts 245°
2026-04-14 17:29 49.52970 -74.36021 40048 ft 394 kts 245°
2026-04-14 17:30 49.50282 -74.43350 40046 ft 395 kts 245°
2026-04-14 17:30 49.47592 -74.50665 40037 ft 393 kts 245°
2026-04-14 17:31 49.44908 -74.57938 40024 ft 393 kts 245°
2026-04-14 17:31 49.42220 -74.65206 40061 ft 394 kts 244°
2026-04-14 17:32 49.39523 -74.72474 40066 ft 395 kts 244°
2026-04-14 17:32 49.36804 -74.79791 40057 ft 395 kts 244°
2026-04-14 17:33 49.34087 -74.87074 40071 ft 394 kts 244°
2026-04-14 17:34 49.30022 -74.97939 40055 ft 395 kts 244°
2026-04-14 17:34 49.27291 -75.05210 40058 ft 395 kts 244°
2026-04-14 17:35 49.24555 -75.12476 40010 ft 394 kts 244°
2026-04-14 17:35 49.21832 -75.19688 40008 ft 395 kts 244°
2026-04-14 17:36 49.19071 -75.26981 39998 ft 397 kts 244°
2026-04-14 17:36 49.16305 -75.34266 39997 ft 396 kts 244°
2026-04-14 17:37 49.13540 -75.41519 40059 ft 398 kts 244°
2026-04-14 17:37 49.10764 -75.48797 39963 ft 396 kts 244°
2026-04-14 17:38 49.08008 -75.56003 40019 ft 399 kts 244°
2026-04-14 17:38 49.05205 -75.63281 40021 ft 399 kts 244°
2026-04-14 17:39 49.02405 -75.70562 40051 ft 400 kts 243°
2026-04-14 17:39 48.99590 -75.77845 40015 ft 399 kts 243°
2026-04-14 17:40 48.96784 -75.85105 39964 ft 399 kts 243°
2026-04-14 17:40 48.93972 -75.92343 39998 ft 401 kts 243°
2026-04-14 17:41 48.91143 -75.99617 39985 ft 402 kts 243°
2026-04-14 17:41 48.88307 -76.06882 40002 ft 401 kts 243°
2026-04-14 17:42 48.85457 -76.14166 39981 ft 402 kts 243°
2026-04-14 17:42 48.82595 -76.21442 39975 ft 403 kts 243°
2026-04-14 17:43 48.79748 -76.28688 39993 ft 403 kts 243°
2026-04-14 17:43 48.76886 -76.35943 39978 ft 402 kts 243°
2026-04-14 17:44 48.74012 -76.43202 39978 ft 402 kts 243°
2026-04-14 17:44 48.71121 -76.50484 39988 ft 404 kts 243°
2026-04-14 17:45 48.68239 -76.57727 39994 ft 404 kts 243°
2026-04-14 17:45 48.65355 -76.64950 39966 ft 404 kts 243°
2026-04-14 17:46 48.62455 -76.72205 40001 ft 405 kts 242°
2026-04-14 17:46 48.59535 -76.79488 39999 ft 405 kts 242°
2026-04-14 17:47 48.56630 -76.86706 39980 ft 404 kts 242°
2026-04-14 17:47 48.53721 -76.93920 40005 ft 406 kts 242°
2026-04-14 17:48 48.50805 -77.01133 39986 ft 405 kts 242°
2026-04-14 17:48 48.47855 -77.08401 40011 ft 408 kts 242°
2026-04-14 17:49 48.44910 -77.15647 39961 ft 406 kts 242°
2026-04-14 17:49 48.41954 -77.22893 39940 ft 409 kts 242°
2026-04-14 17:50 48.39002 -77.30124 39950 ft 407 kts 242°
2026-04-14 17:50 48.36026 -77.37384 39947 ft 409 kts 242°
2026-04-14 17:51 48.33046 -77.44622 39933 ft 409 kts 242°
2026-04-14 17:51 48.30052 -77.51890 39958 ft 410 kts 242°
2026-04-14 17:52 48.27052 -77.59148 39944 ft 410 kts 242°
2026-04-14 17:52 48.24060 -77.66376 39958 ft 413 kts 242°
2026-04-14 17:53 48.21019 -77.73700 39997 ft 414 kts 242°
2026-04-14 17:53 48.17983 -77.80910 39984 ft 414 kts 239°
2026-04-14 17:54 48.14376 -77.87634 39954 ft 412 kts 239°
2026-04-14 17:54 48.10854 -77.94544 39969 ft 419 kts 236°
2026-04-14 17:55 48.07282 -78.01315 40005 ft 418 kts 236°
2026-04-14 17:55 48.03654 -78.08115 40004 ft 419 kts 236°
2026-04-14 17:56 48.00032 -78.14880 39980 ft 420 kts 236°
2026-04-14 17:56 47.96379 -78.21690 39955 ft 422 kts 236°
2026-04-14 17:57 47.92737 -78.28457 39949 ft 420 kts 236°
2026-04-14 17:57 47.89099 -78.35195 39920 ft 422 kts 236°
2026-04-14 17:58 47.85400 -78.42032 39940 ft 423 kts 236°
2026-04-14 17:58 47.81724 -78.48803 39914 ft 423 kts 236°
2026-04-14 17:59 47.78012 -78.55633 39969 ft 426 kts 236°
2026-04-14 17:59 47.74303 -78.62432 39947 ft 424 kts 236°
2026-04-14 18:00 47.70592 -78.69222 39960 ft 426 kts 235°
2026-04-14 18:00 47.65015 -78.79386 39937 ft 427 kts 235°
2026-04-14 18:01 47.61280 -78.86186 39955 ft 427 kts 236°
2026-04-14 18:01 47.57550 -78.92946 39955 ft 427 kts 236°
2026-04-14 18:02 47.53794 -78.99744 39956 ft 427 kts 235°
2026-04-14 18:02 47.50032 -79.06531 39945 ft 426 kts 236°
2026-04-14 18:03 47.46287 -79.13274 39946 ft 425 kts 236°
2026-04-14 18:03 47.42542 -79.19997 39950 ft 425 kts 236°
2026-04-14 18:04 47.38792 -79.26714 39956 ft 426 kts 236°
2026-04-14 18:04 47.35043 -79.33412 39972 ft 425 kts 236°
2026-04-14 18:05 47.31288 -79.40108 39942 ft 424 kts 236°
2026-04-14 18:05 47.27537 -79.46776 39936 ft 425 kts 236°
2026-04-14 18:06 47.23765 -79.53466 39961 ft 426 kts 236°
2026-04-14 18:06 47.20005 -79.60113 39937 ft 424 kts 236°
2026-04-14 18:07 47.16233 -79.66771 39964 ft 426 kts 235°
2026-04-14 18:07 47.12445 -79.73438 39914 ft 426 kts 235°
2026-04-14 18:08 47.08698 -79.80020 39923 ft 425 kts 235°
2026-04-14 18:08 47.04890 -79.86704 39942 ft 425 kts 235°
2026-04-14 18:09 47.01115 -79.93293 39936 ft 424 kts 236°
2026-04-14 18:09 46.97327 -79.99895 39934 ft 426 kts 236°
2026-04-14 18:10 46.93518 -80.06525 39946 ft 425 kts 236°
2026-04-14 18:10 46.89730 -80.13100 39929 ft 425 kts 236°
2026-04-14 18:11 46.85916 -80.19697 39918 ft 425 kts 236°
2026-04-14 18:11 46.82125 -80.26247 39947 ft 424 kts 235°
2026-04-14 18:12 46.78334 -80.32779 39942 ft 422 kts 235°
2026-04-14 18:12 46.74554 -80.39278 39933 ft 422 kts 235°
2026-04-14 18:13 46.70741 -80.45807 39947 ft 425 kts 236°
2026-04-14 18:13 46.66940 -80.52313 39928 ft 424 kts 236°
2026-04-14 18:14 46.63117 -80.58843 39946 ft 424 kts 235°
2026-04-14 18:14 46.59308 -80.65321 39962 ft 424 kts 234°
2026-04-14 18:15 46.55489 -80.71805 39974 ft 425 kts 234°
2026-04-14 18:15 46.51654 -80.78304 39967 ft 423 kts 234°
2026-04-14 18:16 46.47852 -80.84730 39948 ft 423 kts 235°
2026-04-14 18:16 46.44017 -80.91197 39974 ft 421 kts 235°
2026-04-14 18:17 46.40202 -80.97616 39933 ft 423 kts 235°
2026-04-14 18:17 46.36375 -81.04037 39948 ft 423 kts 235°
2026-04-14 18:18 46.32555 -81.10440 39946 ft 422 kts 235°
2026-04-14 18:18 46.28723 -81.16843 39947 ft 422 kts 234°
2026-04-14 18:19 46.24884 -81.23238 39949 ft 422 kts 235°
2026-04-14 18:19 46.21052 -81.29612 39947 ft 421 kts 235°
2026-04-14 18:20 46.17220 -81.35966 39945 ft 420 kts 235°
2026-04-14 18:20 46.13390 -81.42303 39952 ft 421 kts 235°
2026-04-14 18:21 46.09574 -81.48611 39937 ft 420 kts 235°
2026-04-14 18:21 46.05738 -81.54926 39956 ft 420 kts 235°
2026-04-14 18:22 46.01886 -81.61259 39943 ft 419 kts 235°
2026-04-14 18:22 45.98057 -81.67542 39945 ft 421 kts 234°
2026-04-14 18:23 45.94212 -81.73833 39948 ft 420 kts 234°
2026-04-14 18:23 45.90361 -81.80119 39949 ft 420 kts 234°
2026-04-14 18:24 45.86512 -81.86395 39944 ft 420 kts 234°
2026-04-14 18:24 45.82671 -81.92634 39966 ft 419 kts 235°
2026-04-14 18:25 45.78812 -81.98891 39970 ft 419 kts 234°
2026-04-14 18:25 45.74981 -82.05091 39965 ft 419 kts 234°
2026-04-14 18:26 45.71115 -82.11329 39975 ft 419 kts 234°
2026-04-14 18:26 45.67247 -82.17560 39968 ft 419 kts 234°
2026-04-14 18:27 45.63395 -82.23749 39976 ft 419 kts 234°
2026-04-14 18:27 45.59536 -82.29936 39970 ft 419 kts 234°
2026-04-14 18:28 45.55670 -82.36120 39977 ft 419 kts 234°
2026-04-14 18:28 45.51805 -82.42291 39982 ft 419 kts 234°
2026-04-14 18:29 45.47920 -82.48476 39975 ft 418 kts 234°
2026-04-14 18:29 45.44035 -82.54647 39974 ft 420 kts 234°
2026-04-14 18:30 45.40174 -82.60771 39975 ft 419 kts 234°
2026-04-14 18:30 45.36281 -82.66930 39984 ft 419 kts 233°
2026-04-14 18:31 45.32374 -82.73095 39989 ft 420 kts 233°
2026-04-14 18:31 45.28487 -82.79218 39989 ft 419 kts 233°
2026-04-14 18:32 45.24594 -82.85339 39985 ft 418 kts 233°
2026-04-14 18:32 45.20683 -82.91473 39989 ft 419 kts 233°
2026-04-14 18:33 45.16782 -82.97575 39986 ft 419 kts 233°
2026-04-14 18:34 45.08973 -83.09751 39981 ft 419 kts 233°
2026-04-14 18:34 45.05077 -83.15807 39981 ft 419 kts 233°
2026-04-14 18:35 45.01147 -83.21902 39983 ft 419 kts 233°
2026-04-14 18:35 44.97236 -83.27952 39989 ft 419 kts 233°
2026-04-14 18:36 44.93313 -83.34003 39986 ft 420 kts 233°
2026-04-14 18:36 44.89362 -83.40093 39984 ft 420 kts 233°
2026-04-14 18:37 44.85443 -83.46125 39975 ft 420 kts 233°
2026-04-14 18:37 44.81522 -83.52142 39977 ft 418 kts 233°
2026-04-14 18:38 44.77595 -83.58148 39968 ft 419 kts 233°
2026-04-14 18:38 44.73645 -83.64182 39975 ft 420 kts 233°
2026-04-14 18:39 44.69688 -83.70209 39979 ft 420 kts 232°
2026-04-14 18:39 44.65746 -83.76207 39974 ft 420 kts 233°
2026-04-14 18:40 44.61800 -83.82194 39969 ft 420 kts 233°
2026-04-14 18:40 44.57847 -83.88184 39967 ft 420 kts 233°
2026-04-14 18:41 44.53886 -83.94172 39973 ft 419 kts 233°
2026-04-14 18:41 44.49898 -84.00139 39960 ft 421 kts 231°
2026-04-14 18:42 44.45827 -84.05975 39966 ft 419 kts 232°
2026-04-14 18:42 44.41775 -84.11788 39960 ft 419 kts 231°
2026-04-14 18:43 44.37701 -84.17612 39957 ft 419 kts 231°
2026-04-14 18:43 44.33614 -84.23432 39958 ft 421 kts 231°
2026-04-14 18:44 44.29512 -84.29262 39941 ft 422 kts 231°
2026-04-14 18:44 44.25429 -84.35050 39945 ft 421 kts 231°
2026-04-14 18:45 44.21339 -84.40839 39940 ft 420 kts 231°
2026-04-14 18:45 44.17239 -84.46629 39944 ft 420 kts 231°
2026-04-14 18:46 44.13155 -84.52379 39953 ft 420 kts 231°
2026-04-14 18:46 44.09059 -84.58140 39950 ft 420 kts 231°
2026-04-14 18:47 44.04964 -84.63890 39949 ft 420 kts 231°
2026-04-14 18:47 44.00833 -84.69669 39961 ft 423 kts 230°
2026-04-14 18:48 43.96717 -84.75423 39952 ft 421 kts 230°
2026-04-14 18:48 43.92599 -84.81167 39950 ft 421 kts 231°
2026-04-14 18:49 43.88484 -84.86892 39953 ft 423 kts 230°
2026-04-14 18:49 43.84329 -84.92664 39951 ft 422 kts 230°
2026-04-14 18:50 43.80186 -84.98402 39950 ft 422 kts 230°
2026-04-14 18:50 43.76042 -85.04130 39954 ft 424 kts 230°
2026-04-14 18:51 43.71886 -85.09866 39950 ft 423 kts 231°
2026-04-14 18:51 43.67695 -85.15636 39952 ft 424 kts 230°
2026-04-14 18:52 43.63535 -85.21352 39952 ft 424 kts 230°
2026-04-14 18:52 43.59363 -85.27077 39957 ft 423 kts 230°
2026-04-14 18:53 43.55195 -85.32781 39954 ft 423 kts 230°
2026-04-14 18:53 43.51045 -85.38445 39956 ft 424 kts 230°
2026-04-14 18:54 43.46853 -85.44158 39951 ft 424 kts 230°
2026-04-14 18:54 43.42672 -85.49848 39947 ft 424 kts 230°
2026-04-14 18:55 43.38480 -85.55535 39952 ft 425 kts 230°
2026-04-14 18:55 43.34295 -85.61207 39946 ft 426 kts 230°
2026-04-14 18:56 43.30081 -85.66901 39973 ft 426 kts 230°
2026-04-14 18:56 43.25848 -85.72613 39959 ft 425 kts 229°
2026-04-14 18:57 43.21635 -85.78287 39959 ft 427 kts 230°
2026-04-14 18:57 43.17403 -85.83971 39957 ft 426 kts 230°
2026-04-14 18:58 43.13197 -85.89606 39958 ft 427 kts 229°
2026-04-14 18:58 43.08945 -85.95294 39962 ft 428 kts 230°
2026-04-14 18:59 43.04709 -86.00948 39957 ft 427 kts 230°
2026-04-14 18:59 43.00464 -86.06609 39963 ft 425 kts 230°
2026-04-14 19:00 42.96246 -86.12217 39961 ft 427 kts 230°
2026-04-14 19:00 42.91996 -86.17857 39957 ft 426 kts 230°
2026-04-14 19:01 42.87733 -86.23506 39957 ft 426 kts 230°
2026-04-14 19:01 42.83483 -86.29119 39952 ft 427 kts 230°
2026-04-14 19:02 42.79243 -86.34715 39954 ft 427 kts 230°
2026-04-14 19:02 42.75007 -86.40288 39934 ft 427 kts 230°
2026-04-14 19:03 42.70745 -86.45893 39943 ft 427 kts 230°
2026-04-14 19:03 42.66483 -86.51482 39937 ft 426 kts 230°
2026-04-14 19:04 42.62226 -86.57048 39937 ft 427 kts 230°
2026-04-14 19:04 42.57970 -86.62608 39939 ft 427 kts 230°
2026-04-14 19:05 42.53667 -86.68213 39944 ft 428 kts 229°
2026-04-14 19:05 42.49380 -86.73789 39944 ft 428 kts 229°
2026-04-14 19:06 42.45095 -86.79353 39954 ft 430 kts 229°
2026-04-14 19:06 42.40780 -86.84943 39947 ft 429 kts 229°
2026-04-14 19:07 42.36489 -86.90491 39936 ft 430 kts 229°
2026-04-14 19:07 42.32170 -86.96063 39942 ft 429 kts 229°
2026-04-14 19:08 42.27852 -87.01623 39948 ft 430 kts 229°
2026-04-14 19:08 42.23540 -87.07162 39931 ft 430 kts 229°
2026-04-14 19:09 42.19228 -87.12695 39931 ft 430 kts 229°
2026-04-14 19:09 42.14897 -87.18237 39929 ft 430 kts 229°
2026-04-14 19:10 42.10566 -87.23767 39926 ft 431 kts 229°
2026-04-14 19:10 42.06224 -87.29310 39922 ft 432 kts 229°
2026-04-14 19:11 42.01866 -87.34853 39931 ft 431 kts 229°
2026-04-14 19:11 41.97532 -87.40359 39931 ft 430 kts 229°
2026-04-14 19:12 41.93186 -87.45866 39915 ft 430 kts 229°
2026-04-14 19:13 41.86678 -87.54094 39941 ft 429 kts 229°
2026-04-14 19:13 41.82335 -87.59571 39943 ft 430 kts 229°
2026-04-14 19:14 41.77999 -87.65031 39934 ft 428 kts 228°
2026-04-14 19:14 41.73663 -87.70478 39951 ft 430 kts 228°
2026-04-14 19:15 41.69293 -87.75958 39958 ft 429 kts 229°
2026-04-14 19:15 41.64966 -87.81372 39955 ft 430 kts 229°
2026-04-14 19:16 41.60616 -87.86806 39946 ft 429 kts 228°
2026-04-14 19:16 41.56233 -87.92265 39944 ft 430 kts 228°
2026-04-14 19:17 41.51883 -87.97680 39950 ft 430 kts 229°
2026-04-14 19:17 41.47664 -88.03250 39935 ft 426 kts 232°
2026-04-14 19:18 41.43544 -88.08920 39941 ft 425 kts 231°
2026-04-14 19:18 41.39451 -88.14544 39938 ft 424 kts 231°
2026-04-14 19:19 41.35350 -88.20171 39939 ft 425 kts 231°
2026-04-14 19:19 41.31240 -88.25798 39939 ft 425 kts 231°
2026-04-14 19:20 41.27121 -88.31422 39933 ft 424 kts 231°
2026-04-14 19:20 41.23010 -88.37030 39936 ft 425 kts 231°
2026-04-14 19:21 41.18924 -88.42588 39949 ft 424 kts 231°
2026-04-14 19:21 41.14791 -88.48207 39941 ft 424 kts 231°
2026-04-14 19:22 41.10687 -88.53773 39949 ft 423 kts 231°
2026-04-14 19:22 41.06580 -88.59335 39958 ft 423 kts 231°
2026-04-14 19:23 41.02474 -88.64880 39941 ft 423 kts 231°
2026-04-14 19:23 40.98359 -88.70427 39979 ft 424 kts 231°
2026-04-14 19:24 40.94237 -88.75975 39967 ft 422 kts 231°
2026-04-14 19:24 40.90104 -88.81524 39970 ft 425 kts 231°
2026-04-14 19:25 40.85984 -88.87045 39981 ft 423 kts 231°
2026-04-14 19:25 40.81880 -88.92541 39965 ft 423 kts 231°
2026-04-14 19:26 40.77747 -88.98059 39960 ft 424 kts 231°
2026-04-14 19:26 40.73600 -89.03594 39965 ft 422 kts 231°
2026-04-14 19:27 40.69476 -89.09079 39971 ft 423 kts 231°
2026-04-14 19:27 40.65359 -89.14543 39966 ft 423 kts 231°
2026-04-14 19:28 40.61219 -89.20039 39966 ft 422 kts 231°
2026-04-14 19:28 40.57080 -89.25513 39961 ft 422 kts 231°
2026-04-14 19:29 40.52957 -89.30955 39959 ft 422 kts 231°
2026-04-14 19:29 40.48817 -89.36411 39956 ft 421 kts 231°
2026-04-14 19:30 40.44697 -89.41833 39958 ft 422 kts 231°
2026-04-14 19:30 40.40552 -89.47282 39953 ft 422 kts 231°
2026-04-14 19:31 40.36415 -89.52701 39955 ft 422 kts 231°
2026-04-14 19:31 40.32285 -89.58109 39949 ft 421 kts 231°
2026-04-14 19:32 40.28153 -89.63510 39948 ft 421 kts 231°
2026-04-14 19:32 40.24003 -89.68916 39959 ft 421 kts 230°
2026-04-14 19:33 40.19864 -89.74303 39960 ft 422 kts 230°
2026-04-14 19:33 40.15728 -89.79675 39962 ft 421 kts 231°
2026-04-14 19:34 40.09498 -89.87753 39966 ft 421 kts 231°
2026-04-14 19:34 40.05363 -89.93100 39960 ft 420 kts 231°
2026-04-14 19:35 40.01221 -89.98444 39953 ft 420 kts 230°
2026-04-14 19:35 39.96677 -90.03287 39933 ft 424 kts 224°
2026-04-14 19:36 39.92011 -90.08024 39946 ft 427 kts 224°
2026-04-14 19:36 39.87325 -90.12717 39959 ft 425 kts 224°
2026-04-14 19:37 39.82649 -90.17385 39959 ft 426 kts 224°
2026-04-14 19:37 39.77944 -90.22074 39960 ft 425 kts 224°
2026-04-14 19:38 39.73250 -90.26741 39962 ft 426 kts 224°
2026-04-14 19:38 39.68571 -90.31392 39950 ft 426 kts 224°
2026-04-14 19:39 39.63885 -90.36037 39952 ft 425 kts 224°
2026-04-14 19:39 39.59166 -90.40707 39952 ft 426 kts 224°
2026-04-14 19:40 39.54492 -90.45327 39942 ft 425 kts 224°
2026-04-14 19:40 39.49766 -90.49986 39938 ft 426 kts 224°
2026-04-14 19:41 39.45049 -90.54626 39946 ft 426 kts 224°
2026-04-14 19:41 39.40370 -90.59224 39944 ft 427 kts 224°
2026-04-14 19:42 39.35656 -90.63850 39949 ft 427 kts 224°
2026-04-14 19:42 39.30916 -90.68491 39963 ft 428 kts 223°
2026-04-14 19:43 39.26199 -90.73105 39950 ft 427 kts 224°
2026-04-14 19:43 39.21479 -90.77715 39947 ft 426 kts 223°
2026-04-14 19:44 39.16731 -90.82334 39954 ft 428 kts 223°
2026-04-14 19:44 39.11995 -90.86939 39949 ft 429 kts 223°
2026-04-14 19:45 39.07226 -90.91572 39967 ft 427 kts 223°
2026-04-14 19:45 39.02520 -90.96137 39954 ft 426 kts 223°
2026-04-14 19:46 38.97765 -91.00732 39955 ft 428 kts 223°
2026-04-14 19:46 38.93045 -91.05292 39968 ft 425 kts 223°
2026-04-14 19:47 38.88317 -91.09854 39964 ft 426 kts 223°
2026-04-14 19:47 38.83578 -91.14414 39975 ft 427 kts 223°
2026-04-14 19:48 38.78845 -91.18961 39980 ft 426 kts 223°
2026-04-14 19:48 38.74101 -91.23514 39975 ft 427 kts 223°
2026-04-14 19:49 38.69371 -91.28046 39984 ft 426 kts 223°
2026-04-14 19:49 38.64610 -91.32594 39984 ft 425 kts 223°
2026-04-14 19:50 38.59906 -91.37083 39979 ft 425 kts 223°
2026-04-14 19:50 38.55154 -91.41614 39970 ft 425 kts 223°
2026-04-14 19:51 38.50424 -91.46114 39980 ft 425 kts 223°
2026-04-14 19:51 38.45704 -91.50594 39971 ft 426 kts 223°
2026-04-14 19:52 38.40955 -91.55098 39971 ft 426 kts 223°
2026-04-14 19:52 38.36225 -91.59578 39986 ft 426 kts 223°
2026-04-14 19:53 38.31472 -91.64066 39982 ft 427 kts 223°
2026-04-14 19:53 38.26668 -91.68597 39995 ft 433 kts 222°
2026-04-14 19:54 38.19406 -91.75432 40002 ft 431 kts 222°
2026-04-14 19:55 38.14613 -91.79936 39996 ft 432 kts 222°
2026-04-14 19:55 38.09798 -91.84452 40005 ft 430 kts 222°
2026-04-14 19:56 38.04995 -91.88946 40009 ft 430 kts 222°
2026-04-14 19:56 38.00160 -91.93464 39991 ft 431 kts 222°
2026-04-14 19:57 37.95330 -91.97974 39967 ft 431 kts 222°
2026-04-14 19:57 37.90517 -92.02457 39985 ft 430 kts 222°
2026-04-14 19:58 37.85674 -92.06960 40001 ft 432 kts 222°
2026-04-14 19:58 37.80850 -92.11440 39994 ft 431 kts 222°
2026-04-14 19:59 37.76017 -92.15919 40004 ft 430 kts 222°
2026-04-14 19:59 37.71216 -92.20360 40016 ft 431 kts 222°
2026-04-14 20:00 37.66360 -92.24847 40008 ft 431 kts 222°
2026-04-14 20:00 37.61525 -92.29306 40024 ft 432 kts 222°
2026-04-14 20:01 37.56719 -92.33733 40021 ft 431 kts 222°
2026-04-14 20:01 37.51870 -92.38193 40015 ft 432 kts 222°
2026-04-14 20:02 37.47025 -92.42635 40031 ft 432 kts 222°
2026-04-14 20:02 37.42181 -92.47070 40027 ft 432 kts 222°
2026-04-14 20:03 37.37333 -92.51506 40032 ft 431 kts 222°
2026-04-14 20:03 37.32489 -92.55931 40038 ft 432 kts 222°
2026-04-14 20:04 37.27647 -92.60346 40057 ft 432 kts 222°
2026-04-14 20:04 37.22782 -92.64778 40048 ft 430 kts 222°
2026-04-14 20:05 37.17923 -92.69194 40070 ft 431 kts 221°
2026-04-14 20:05 37.13091 -92.73574 40066 ft 432 kts 221°
2026-04-14 20:06 37.08231 -92.77980 40058 ft 432 kts 221°
2026-04-14 20:06 37.03364 -92.82379 40070 ft 433 kts 221°
2026-04-14 20:07 36.98506 -92.86766 40077 ft 433 kts 221°
2026-04-14 20:07 36.93609 -92.91183 40051 ft 432 kts 221°
2026-04-14 20:08 36.88758 -92.95548 40074 ft 432 kts 221°
2026-04-14 20:08 36.83889 -92.99924 40070 ft 433 kts 221°
2026-04-14 20:09 36.78994 -93.04316 40067 ft 432 kts 221°
2026-04-14 20:09 36.74130 -93.08672 40056 ft 432 kts 221°
2026-04-14 20:10 36.69249 -93.13039 40066 ft 432 kts 221°
2026-04-14 20:10 36.64378 -93.17385 40073 ft 432 kts 221°
2026-04-14 20:11 36.59520 -93.21719 40071 ft 432 kts 221°
2026-04-14 20:11 36.54632 -93.26067 40082 ft 432 kts 221°
2026-04-14 20:12 36.49756 -93.30402 40068 ft 433 kts 221°
2026-04-14 20:12 36.44874 -93.34730 40081 ft 431 kts 221°
2026-04-14 20:13 36.39986 -93.39060 40079 ft 432 kts 221°
2026-04-14 20:13 36.35120 -93.43369 40081 ft 431 kts 221°
2026-04-14 20:14 36.30251 -93.47666 40086 ft 431 kts 221°
2026-04-14 20:14 36.25378 -93.51965 40085 ft 430 kts 221°
2026-04-14 20:15 36.20505 -93.56253 40088 ft 431 kts 221°
2026-04-14 20:15 36.15631 -93.60534 40080 ft 430 kts 221°
2026-04-14 20:16 36.10748 -93.64822 40079 ft 430 kts 221°
2026-04-14 20:16 36.05873 -93.69093 40108 ft 433 kts 221°
2026-04-14 20:17 36.00977 -93.73375 40107 ft 431 kts 221°
2026-04-14 20:17 35.96086 -93.77649 40095 ft 431 kts 220°
2026-04-14 20:18 35.91186 -93.81927 40113 ft 432 kts 220°
2026-04-14 20:18 35.86273 -93.86200 40124 ft 432 kts 221°
2026-04-14 20:19 35.81371 -93.90463 40117 ft 431 kts 221°
2026-04-14 20:19 35.76467 -93.94722 40119 ft 432 kts 220°
2026-04-14 20:20 35.71582 -93.98955 40121 ft 432 kts 221°
2026-04-14 20:20 35.66651 -94.03226 40113 ft 433 kts 220°
2026-04-14 20:21 35.61753 -94.07452 40103 ft 433 kts 220°
2026-04-14 20:21 35.56841 -94.11695 40094 ft 432 kts 220°
2026-04-14 20:22 35.51922 -94.15929 40096 ft 434 kts 220°
2026-04-14 20:22 35.46961 -94.20200 40098 ft 434 kts 220°
2026-04-14 20:23 35.42030 -94.24432 40093 ft 433 kts 220°
2026-04-14 20:23 35.37021 -94.28493 40059 ft 437 kts 215°
2026-04-14 20:23 35.34575 -94.30601 40001 ft 427 kts 228°
2026-04-14 20:24 35.32661 -94.33368 40030 ft 423 kts 233°
2026-04-14 20:24 35.28400 -94.38373 40097 ft 429 kts 227°
2026-04-14 20:25 35.24002 -94.43245 40090 ft 428 kts 226°
2026-04-14 20:25 35.19540 -94.48105 40089 ft 427 kts 226°
2026-04-14 20:26 35.15086 -94.52927 40087 ft 428 kts 226°
2026-04-14 20:26 35.10655 -94.57706 40091 ft 429 kts 226°
2026-04-14 20:27 35.06205 -94.62497 40093 ft 427 kts 226°
2026-04-14 20:27 35.01746 -94.67300 40105 ft 427 kts 225°
2026-04-14 20:28 34.97280 -94.72099 40104 ft 427 kts 225°
2026-04-14 20:28 34.92843 -94.76852 40098 ft 428 kts 226°
2026-04-14 20:29 34.88361 -94.81657 40104 ft 427 kts 225°
2026-04-14 20:29 34.83932 -94.86388 40083 ft 426 kts 226°
2026-04-14 20:30 34.79401 -94.91101 40100 ft 428 kts 224°
2026-04-14 20:30 34.74873 -94.95731 40095 ft 428 kts 224°
2026-04-14 20:31 34.70324 -95.00378 40094 ft 429 kts 225°
2026-04-14 20:31 34.65751 -95.05039 40097 ft 428 kts 225°
2026-04-14 20:32 34.61187 -95.09688 39938 ft 432 kts 225°
2026-04-14 20:32 34.58872 -95.12042 39287 ft 432 kts 224°
2026-04-14 20:32 34.56572 -95.14377 38628 ft 429 kts 224°
2026-04-14 20:32 34.54314 -95.16671 38054 ft 430 kts 224°
2026-04-14 20:33 34.52022 -95.19003 37525 ft 431 kts 224°
2026-04-14 20:33 34.49709 -95.21344 37048 ft 434 kts 224°
2026-04-14 20:33 34.47400 -95.23682 36627 ft 436 kts 224°
2026-04-14 20:34 34.42707 -95.28419 35891 ft 441 kts 224°
2026-04-14 20:34 34.40375 -95.30771 35537 ft 441 kts 224°
2026-04-14 20:34 34.37995 -95.33169 35176 ft 443 kts 224°
2026-04-14 20:34 34.35635 -95.35541 34825 ft 445 kts 224°
2026-04-14 20:35 34.33229 -95.37962 34459 ft 449 kts 223°
2026-04-14 20:35 34.30827 -95.40376 34110 ft 449 kts 224°
2026-04-14 20:35 34.28421 -95.42792 33767 ft 452 kts 223°
2026-04-14 20:35 34.25996 -95.45229 33433 ft 455 kts 223°
2026-04-14 20:36 34.23805 -95.47921 33060 ft 451 kts 234°
2026-04-14 20:36 34.21864 -95.50952 32711 ft 453 kts 231°
2026-04-14 20:36 34.19503 -95.53498 32307 ft 461 kts 221°
2026-04-14 20:36 34.16966 -95.55830 32043 ft 461 kts 222°
2026-04-14 20:37 34.14445 -95.58237 31716 ft 462 kts 221°
2026-04-14 20:37 34.11880 -95.60594 31390 ft 464 kts 221°
2026-04-14 20:37 34.09313 -95.62953 31097 ft 466 kts 221°
2026-04-14 20:37 34.06736 -95.65313 30813 ft 466 kts 220°
2026-04-14 20:38 34.04162 -95.67663 30515 ft 468 kts 220°
2026-04-14 20:38 34.01568 -95.70029 29992 ft 470 kts 220°
2026-04-14 20:38 33.98938 -95.72427 29404 ft 472 kts 220°
2026-04-14 20:38 33.96336 -95.74800 28865 ft 473 kts 220°
2026-04-14 20:39 33.93767 -95.77341 28357 ft 475 kts 223°
2026-04-14 20:39 33.91260 -95.79881 27874 ft 478 kts 222°
2026-04-14 20:39 33.88666 -95.82455 27331 ft 480 kts 222°
2026-04-14 20:39 33.86081 -95.85051 26815 ft 481 kts 222°
2026-04-14 20:40 33.83534 -95.87594 26337 ft 480 kts 222°
2026-04-14 20:40 33.80962 -95.90145 25876 ft 477 kts 221°
2026-04-14 20:40 33.78414 -95.92663 25427 ft 474 kts 221°
2026-04-14 20:40 33.75862 -95.95185 24972 ft 471 kts 221°
2026-04-14 20:41 33.73347 -95.97666 24513 ft 478 kts 221°
2026-04-14 20:41 33.70767 -96.00209 24031 ft 489 kts 221°
2026-04-14 20:41 33.68132 -96.02802 23560 ft 491 kts 221°
2026-04-14 20:41 33.65475 -96.05415 23121 ft 489 kts 221°
2026-04-14 20:42 33.62841 -96.07994 22719 ft 487 kts 221°
2026-04-14 20:42 33.60237 -96.10550 22316 ft 491 kts 221°
2026-04-14 20:42 33.54919 -96.15770 21516 ft 493 kts 221°
2026-04-14 20:43 33.52308 -96.18328 21046 ft 473 kts 221°
2026-04-14 20:43 33.49903 -96.20682 20351 ft 425 kts 222°
2026-04-14 20:43 33.47737 -96.22799 19926 ft 381 kts 222°
2026-04-14 20:43 33.45779 -96.24715 19456 ft 355 kts 222°
2026-04-14 20:44 33.43930 -96.26724 19160 ft 364 kts 229°
2026-04-14 20:44 33.42327 -96.29047 18685 ft 359 kts 232°
2026-04-14 20:44 33.40699 -96.31290 18147 ft 352 kts 231°
2026-04-14 20:44 33.39127 -96.33444 17475 ft 339 kts 231°
2026-04-14 20:45 33.37623 -96.35521 16771 ft 318 kts 231°
2026-04-14 20:45 33.36229 -96.37441 16235 ft 298 kts 231°
2026-04-14 20:45 33.34906 -96.39265 15669 ft 284 kts 230°
2026-04-14 20:45 33.33624 -96.41026 15326 ft 280 kts 230°
2026-04-14 20:46 33.32465 -96.42912 14892 ft 286 kts 243°
2026-04-14 20:46 33.31863 -96.45156 14440 ft 287 kts 253°
2026-04-14 20:46 33.31267 -96.47431 13991 ft 286 kts 249°
2026-04-14 20:46 33.30622 -96.49670 13558 ft 284 kts 249°
2026-04-14 20:47 33.30001 -96.51906 13111 ft 283 kts 249°
2026-04-14 20:47 33.29382 -96.54107 12672 ft 281 kts 249°
2026-04-14 20:47 33.28790 -96.56319 12224 ft 281 kts 253°
2026-04-14 20:47 33.28611 -96.58633 11761 ft 284 kts 266°
2026-04-14 20:48 33.28556 -96.60997 11306 ft 282 kts 263°
2026-04-14 20:48 33.28435 -96.63322 10860 ft 280 kts 263°
2026-04-14 20:48 33.28334 -96.65623 10413 ft 279 kts 263°
2026-04-14 20:48 33.28227 -96.67907 9973 ft 278 kts 263°
2026-04-14 20:49 33.28114 -96.70205 9525 ft 276 kts 263°
2026-04-14 20:49 33.28001 -96.72490 9086 ft 275 kts 263°
2026-04-14 20:49 33.27892 -96.74748 8699 ft 272 kts 263°
2026-04-14 20:49 33.27786 -96.77010 8319 ft 271 kts 263°
2026-04-14 20:50 33.27679 -96.79236 7946 ft 270 kts 263°
2026-04-14 20:50 33.27573 -96.81471 7574 ft 267 kts 263°
2026-04-14 20:50 33.27473 -96.83627 7228 ft 259 kts 263°
2026-04-14 20:50 33.27306 -96.85734 6865 ft 248 kts 253°
2026-04-14 20:51 33.26600 -96.87532 6572 ft 234 kts 236°
2026-04-14 20:51 33.25856 -96.89221 6254 ft 228 kts 244°
2026-04-14 20:51 33.25234 -96.90911 5927 ft 222 kts 243°
2026-04-14 20:51 33.24602 -96.92569 5637 ft 219 kts 243°
2026-04-14 20:52 33.23985 -96.94231 5359 ft 220 kts 243°
2026-04-14 20:52 33.23360 -96.95910 5087 ft 222 kts 243°
2026-04-14 20:52 33.22733 -96.97607 4808 ft 219 kts 243°
2026-04-14 20:52 33.22136 -96.99226 4530 ft 213 kts 242°
2026-04-14 20:53 33.21544 -97.00829 4239 ft 209 kts 242°
2026-04-14 20:53 33.20958 -97.02415 3990 ft 205 kts 242°
2026-04-14 20:53 33.20384 -97.03962 3933 ft 204 kts 240°
2026-04-14 20:53 33.19503 -97.05228 3920 ft 199 kts 210°
2026-04-14 20:54 33.18171 -97.05533 3953 ft 200 kts 176°
2026-04-14 20:54 33.16778 -97.05357 4030 ft 198 kts 181°
2026-04-14 20:54 33.15422 -97.05383 3966 ft 191 kts 183°
2026-04-14 20:54 33.14099 -97.05377 3963 ft 188 kts 182°
2026-04-14 20:55 33.12793 -97.05386 4016 ft 184 kts 183°
2026-04-14 20:55 33.11527 -97.05398 3962 ft 179 kts 182°
2026-04-14 20:55 33.10274 -97.05405 3875 ft 180 kts 182°
2026-04-14 20:55 33.09018 -97.05414 3706 ft 179 kts 182°
2026-04-14 20:56 33.07779 -97.05419 3536 ft 178 kts 182°
2026-04-14 20:56 33.06543 -97.05425 3364 ft 176 kts 182°
2026-04-14 20:56 33.05298 -97.05429 3198 ft 176 kts 182°
2026-04-14 20:56 33.04075 -97.05434 3030 ft 176 kts 182°
2026-04-14 20:57 33.02886 -97.05437 2857 ft 166 kts 181°
2026-04-14 20:57 33.01759 -97.05443 2653 ft 157 kts 181°
2026-04-14 20:57 33.00637 -97.05449 2465 ft 159 kts 181°
2026-04-14 20:57 32.99522 -97.05454 2325 ft 164 kts 182°
2026-04-14 20:58 32.98381 -97.05456 2177 ft 160 kts 181°
2026-04-14 20:58 32.97302 -97.05439 1975 ft 150 kts 180°
2026-04-14 20:58 32.96303 -97.05409 1762 ft 139 kts 181°
2026-04-14 20:58 32.95358 -97.05420 1498 ft 132 kts 181°
2026-04-14 20:59 32.94453 -97.05447 1228 ft 129 kts 181°
2026-04-14 20:59 32.93564 -97.05455 1007 ft 127 kts 180°
2026-04-14 20:59 32.92675 -97.05459 826 ft 128 kts 180°
2026-04-14 20:59 32.91768 -97.05463 688 ft 130 kts 180°
2026-04-14 21:00 32.90900 -97.05470 610 ft 115 kts 180°
2026-04-14 21:00 32.90185 -97.05472 615 ft 89 kts 180°
2026-04-14 21:00 32.89648 -97.05476 602 ft 66 kts 179°
2026-04-14 21:00 32.89293 -97.05441 594 ft 39 kts 155°
2026-04-14 21:01 32.89097 -97.05319 588 ft 25 kts 147°
2026-04-14 21:01 32.89062 -97.05270 586 ft 1 kts 115°
2026-04-14 21:01 32.89050 -97.05231 585 ft 6 kts 107°
2026-04-14 21:01 32.89044 -97.05148 585 ft 16 kts 90°
2026-04-14 21:02 32.89044 -97.04986 584 ft 18 kts 91°
2026-04-14 21:02 32.89046 -97.04836 584 ft 15 kts 77°
2026-04-14 21:02 32.89122 -97.04770 585 ft 14 kts
2026-04-14 21:02 32.89227 -97.04768 588 ft 17 kts
2026-04-14 21:03 32.89338 -97.04768 591 ft 9 kts
2026-04-14 21:03 32.89409 -97.04768 593 ft 12 kts
2026-04-14 21:03 32.89500 -97.04766 594 ft 12 kts
2026-04-14 21:03 32.89568 -97.04736 595 ft 9 kts 53°
2026-04-14 21:04 32.89583 -97.04673 596 ft 6 kts 81°
2026-04-14 21:04 32.89586 -97.04620 595 ft 6 kts 90°
2026-04-14 21:04 32.89587 -97.04578 594 ft 2 kts 89°
2026-04-14 21:04 32.89587 -97.04577 594 ft 0 kts 89°